GFSFLT1_850_rhum_000.txt.gz
RH
80 82 78 76 78 39 35 34 32 40 48 49 50 48 37 30 27 23 24 37 44 75 94 77 43 41 40 55 71 69 65 63 53
81 78 83 83 57 36 38 40 40 39 40 40 45 43 41 39 37 36 34 33 41 48 88 96 96 66 41 39 49 61 61 58 63
75 81 82 70 38 38 39 40 41 40 40 40 41 43 45 46 48 51 51 49 44 47 51 96 94 84 93 87 94 94 90 87 93
71 76 63 44 41 40 40 43 44 46 48 53 52 53 51 57 61 63 63 60 62 62 61 74 96 96 97 80 77 92 94 98 98
53 41 36 37 40 46 54 59 69 72 75 79 84 85 85 84 82 81 80 81 83 82 76 74 89 95 96 98 86 76 77 97 100
34 34 38 47 56 60 66 68 73 79 86 89 90 91 92 90 86 89 86 90 91 90 90 92 90 89 90 89 87 95 88 85 87
45 51 60 70 73 75 82 86 88 88 87 86 83 83 86 82 98 92 86 86 91 88 87 85 85 86 81 79 83 90 98 100 100
65 75 85 86 83 86 84 87 88 87 85 82 76 67 65 70 69 72 80 83 84 81 82 79 81 82 80 79 77 72 74 86 94
80 84 91 96 93 88 87 83 80 79 79 70 68 58 54 55 67 76 67 52 65 74 86 74 77 77 73 76 71 75 76 81 76
92 100 100 95 87 87 85 83 76 62 43 37 39 40 40 44 61 75 71 50 50 59 64 71 74 76 84 88 87 85 79 77 64
97 95 93 89 84 82 74 51 41 38 38 37 35 32 34 41 45 50 43 43 61 63 64 60 62 64 87 96 90 82 75 74 79
97 94 91 85 61 38 39 37 38 34 29 25 22 22 25 29 30 38 57 58 50 48 49 48 54 56 59 63 62 75 82 86 84
97 88 49 30 35 36 33 29 25 24 24 24 25 25 24 32 45 43 54 51 47 41 38 37 42 47 47 45 44 46 49 54 57
54 31 34 31 27 25 24 24 26 27 26 26 24 23 34 34 26 39 33 25 20 25 28 33 36 35 28 25 27 26 30 51 70
34 32 30 33 33 28 27 27 28 24 22 22 20 18 30 18 39 11 13 7 9 15 8 6 6 5 6 9 9 8 30 59 69
34 35 41 41 40 33 30 28 25 22 19 18 17 13 11 20 32 8 10 7 8 5 5 4 4 4 4 6 16 25 38 62 74
41 46 50 48 42 33 28 25 21 19 15 15 16 20 14 24 11 21 10 16 12 7 6 5 6 6 12 18 15 5 17 35 61
50 52 51 46 36 30 24 21 18 17 16 12 16 34 42 29 24 14 21 14 14 10 10 10 16 17 18 9 8 19 39 53 68
53 52 50 41 32 26 21 16 16 16 14 9 13 20 28 39 37 25 14 25 16 13 13 16 22 22 17 17 37 47 44 58 69
52 50 47 38 30 24 20 19 17 12 10 14 17 19 21 26 39 44 39 27 18 15 24 25 23 22 34 42 48 44 39 72 76

GFSFLT1_850_rhum_003.txt.gz
RH
82 83 82 85 66 40 38 39 37 39 40 39 42 42 40 38 39 39 32 30 34 64 86 98 97 86 69 74 90 87 79 79 81
81 81 78 84 56 39 39 40 40 40 39 40 42 50 46 48 52 56 58 55 46 44 53 96 96 98 98 100 97 98 100 96 99
80 81 86 80 41 39 40 41 43 44 44 47 49 52 53 56 66 70 72 74 66 65 59 60 92 98 98 94 89 94 99 97 93
70 72 69 45 38 40 44 55 62 69 73 74 76 80 84 83 82 82 82 82 83 86 87 82 87 97 96 97 98 95 86 86 95
61 54 38 38 44 56 70 72 79 83 88 88 90 89 86 87 83 84 86 90 91 86 86 85 86 90 92 90 94 97 99 99 95
34 33 37 51 68 76 85 87 87 88 89 89 88 85 81 82 78 78 77 86 84 85 83 80 83 84 83 82 82 85 87 90 98
41 47 54 74 78 87 90 88 88 88 85 83 80 75 70 67 72 71 78 81 78 80 78 83 84 83 84 86 89 88 81 80 87
60 62 72 81 89 100 94 88 85 83 80 76 72 58 58 52 53 63 68 70 59 52 68 86 84 80 76 75 73 70 79 83 81
74 81 88 94 93 89 88 84 84 82 78 64 46 37 38 39 39 47 63 74 69 50 57 61 70 71 70 75 72 77 89 91 87
86 96 97 95 92 84 84 83 76 50 34 33 36 36 33 31 35 43 51 55 48 48 53 63 73 72 74 88 95 95 90 85 83
98 97 91 89 88 81 68 44 36 36 37 34 28 22 21 23 27 32 40 49 51 52 51 54 55 61 65 67 82 87 81 77 71
96 92 89 86 66 35 34 36 35 28 23 21 20 23 25 26 29 40 48 51 50 46 42 40 43 47 48 52 54 56 60 63 72
97 90 65 31 34 31 26 23 20 20 20 20 22 23 25 28 38 42 43 42 38 33 34 34 34 35 38 38 38 37 40 36 44
83 34 32 31 30 31 30 26 26 25 22 21 19 20 24 38 24 24 19 19 12 14 20 15 10 10 11 10 8 11 24 62 68
32 33 34 37 41 38 32 28 27 24 22 21 18 16 26 30 17 25 11 13 7 13 6 5 5 4 4 4 5 6 7 14 43
36 38 45 47 43 32 30 27 25 22 22 20 18 12 14 10 24 23 10 8 7 12 5 6 5 4 5 5 6 10 10 49 38
44 49 49 47 39 31 27 24 21 20 18 17 15 13 13 16 26 11 14 10 10 6 6 5 5 6 6 7 7 7 7 41 71
51 52 51 47 36 28 25 21 19 18 16 13 17 19 26 18 16 12 12 11 8 7 6 6 7 10 12 10 10 11 23 58 77
52 52 50 46 35 28 26 23 21 16 12 13 15 19 23 25 28 17 10 12 10 9 8 8 10 12 13 17 24 28 40 70 83
52 50 50 46 36 30 27 23 17 11 13 17 19 18 17 19 33 35 19 11 11 12 13 13 10 12 18 33 45 44 43 64 70

GFSFLT1_850_rhum_006.txt.gz
RH
81 82 83 84 48 38 37 37 37 37 39 41 41 42 43 44 48 50 50 46 40 34 50 70 97 99 97 65 66 85 79 92 85
87 80 78 85 66 45 45 45 45 43 43 44 46 47 51 50 58 66 69 72 68 59 50 48 91 98 94 99 100 98 98 100 95
83 83 82 89 57 48 50 51 52 56 58 66 69 74 80 80 82 81 79 78 77 72 69 68 65 65 96 98 96 88 91 90 97
76 73 74 63 46 48 59 69 76 80 84 87 88 88 89 87 87 87 88 94 92 86 88 84 84 85 92 95 97 98 99 98 78
66 68 50 42 48 64 72 76 82 82 82 86 86 87 84 80 78 78 87 94 92 86 84 84 83 78 79 81 83 84 85 86 90
50 45 42 54 66 73 82 86 86 86 83 83 84 82 78 71 66 73 69 76 84 83 83 82 81 83 85 84 82 80 81 82 81
47 48 52 69 80 89 88 84 86 84 83 80 79 77 67 62 56 55 64 68 66 63 62 72 87 93 90 86 82 84 86 83 83
58 64 77 86 88 99 93 85 82 83 83 80 77 61 45 40 39 42 46 60 68 69 56 49 66 69 68 69 70 70 75 78 82
81 83 94 91 97 91 85 85 85 84 73 50 37 35 35 36 34 33 38 49 58 60 52 70 78 71 72 78 72 88 88 87 88
88 98 98 94 89 90 87 83 59 42 36 36 36 33 28 24 22 24 31 40 46 52 65 73 73 71 82 93 96 93 92 87 83
100 98 94 86 86 88 65 35 33 34 33 28 23 21 21 23 26 31 41 48 50 48 48 49 51 53 58 65 70 76 81 78 72
95 90 87 90 66 33 33 30 27 23 20 18 19 21 24 25 31 39 43 46 47 46 45 42 39 40 41 43 48 49 52 52 51
94 93 86 34 32 31 29 26 23 20 19 18 18 18 19 24 33 34 34 37 36 29 26 29 28 26 24 25 28 29 32 33 35
90 74 32 33 35 36 32 25 23 22 20 19 17 16 18 24 35 26 17 13 14 8 14 12 7 7 6 5 5 6 7 7 19
36 33 36 41 40 33 25 23 24 23 22 20 18 14 15 27 37 21 25 13 13 8 11 11 6 6 5 5 5 5 6 7 48
36 39 45 45 39 29 22 23 24 24 24 21 17 13 12 14 11 22 30 12 13 8 7 6 5 5 5 5 6 8 8 12 79
41 48 49 46 41 33 25 24 26 26 22 16 15 14 13 14 17 10 12 10 9 9 7 7 6 5 5 5 6 7 7 16 48
50 51 51 48 45 39 30 27 27 24 16 13 17 17 20 18 15 12 12 12 10 10 9 9 8 7 7 6 6 7 9 21 72
51 52 51 51 49 43 35 29 24 16 13 14 16 18 21 21 23 17 13 13 12 11 11 10 9 8 8 8 8 13 25 65 72
52 52 52 53 51 46 37 26 18 12 13 16 18 16 15 16 30 24 17 14 14 14 13 12 12 11 11 13 30 40 64 69 73

GFSFLT1_850_rhum_012.txt.gz
RH
85 81 75 70 48 46 46 46 44 45 46 50 52 82 95 57 95 90 88 61 60 53 40 40 64 80 92 96 70 64 66 78 82
84 82 80 76 55 49 48 48 52 53 53 57 54 54 58 57 94 86 81 82 66 59 58 61 53 52 64 97 88 93 86 61 76
85 85 82 78 56 47 52 59 70 70 72 74 73 73 74 94 100 97 96 81 73 68 71 97 90 74 72 68 67 88 85 86 87
86 85 76 73 49 48 63 71 80 79 79 78 78 77 77 83 92 76 93 82 70 72 85 84 88 94 94 89 84 76 81 87 88
76 73 69 58 46 61 70 77 84 84 84 81 77 72 70 72 62 68 69 58 53 56 75 78 83 83 83 85 89 88 84 81 76
66 63 57 45 55 67 75 80 84 82 78 75 72 73 69 56 51 43 36 37 42 55 59 60 62 65 73 78 78 80 83 87 90
57 51 44 55 71 77 82 86 82 77 78 74 60 48 43 36 34 38 34 34 35 39 48 61 62 54 57 60 61 67 75 77 77
48 61 68 88 82 85 89 87 81 80 68 42 34 32 33 34 36 36 29 27 30 61 83 74 71 78 75 70 59 54 57 66 68
54 95 91 93 87 90 88 85 82 68 33 32 32 29 25 22 23 36 23 30 42 62 70 64 78 74 69 79 78 70 74 74 79
93 84 86 89 88 87 84 82 45 31 30 26 22 19 18 18 24 44 31 38 44 50 53 63 60 61 69 75 73 76 80 85 87
87 92 93 90 86 85 66 31 30 28 25 22 18 16 17 19 24 36 34 42 46 47 47 46 45 44 45 47 48 51 53 57 62
92 92 90 87 87 44 31 32 30 25 19 17 17 16 17 20 26 33 38 39 39 38 37 34 32 33 33 32 32 34 32 37 41
90 87 86 87 39 33 33 28 20 16 16 17 17 17 17 22 27 28 27 25 20 19 16 12 9 9 10 9 7 6 5 6 6
89 87 89 43 35 36 28 21 16 14 15 16 16 15 22 30 31 33 30 28 25 21 18 13 10 8 8 7 6 6 5 4 4
89 87 52 36 41 35 32 28 24 19 15 14 14 14 19 23 34 39 39 16 14 17 20 14 10 11 10 10 9 8 8 7 7
88 54 36 44 43 42 41 38 34 26 18 15 24 19 13 19 43 24 16 14 12 11 13 13 12 12 12 11 11 10 10 9 9
75 36 44 48 47 48 48 46 40 32 22 16 23 26 26 29 20 17 13 14 14 15 15 15 15 15 14 13 13 12 12 11 11
37 42 49 49 50 51 52 51 46 34 24 17 19 24 23 24 21 24 18 20 18 18 18 17 17 16 15 14 13 12 12 12 15
40 48 49 50 52 53 54 53 48 37 23 22 16 15 17 26 27 30 31 30 33 34 30 22 18 17 15 12 11 11 11 10 17
44 50 50 51 53 54 55 54 47 37 24 19 17 18 27 36 42 35 32 36 39 42 44 41 36 40 41 41 43 24 13 61 87

GFSFLT1_850_rhum_015.txt.gz
RH
80 81 74 62 46 45 45 44 44 42 43 45 47 47 50 61 90 93 94 93 72 60 53 46 38 44 49 56 68 44 50 61 67
84 78 79 77 52 48 48 50 54 56 61 62 60 63 66 72 96 94 97 98 75 66 61 71 92 69 65 62 68 73 65 52 40
81 83 82 76 58 48 60 64 70 72 82 80 72 70 70 76 95 95 97 90 74 68 76 82 82 83 86 89 83 72 89 87 75
87 90 79 66 49 48 67 77 80 78 79 77 74 66 62 65 84 73 83 74 56 51 59 84 84 86 87 85 88 95 86 76 85
83 77 67 53 41 52 66 77 77 76 75 70 66 63 63 70 68 64 62 43 40 43 51 59 60 65 72 69 70 74 79 92 95
71 62 55 41 44 61 68 72 79 76 64 64 59 50 59 55 52 51 42 33 34 36 41 47 52 56 52 47 52 58 67 74 77
86 50 46 41 55 69 73 75 78 72 71 63 40 37 31 33 39 45 38 32 32 37 70 51 57 69 80 66 59 53 53 51 54
45 50 42 70 80 85 82 82 78 79 69 34 30 31 29 32 40 46 34 23 79 92 80 74 80 74 77 80 61 57 58 60 62
85 87 96 98 87 82 80 80 78 57 30 29 25 24 22 32 38 47 29 27 42 49 61 62 61 62 69 70 58 63 64 74 79
87 94 87 84 82 78 78 79 45 30 28 25 22 21 19 29 38 46 29 33 39 41 47 50 52 53 57 62 61 63 62 65 69
94 80 81 85 83 80 81 34 30 27 22 19 20 20 26 23 32 49 30 36 39 42 43 44 43 43 44 43 43 43 42 43 46
82 86 88 87 85 80 31 31 26 17 14 21 22 20 22 29 37 40 47 37 36 37 35 31 26 21 14 10 9 9 8 8 9
87 89 84 85 82 32 31 26 19 15 14 14 20 26 23 31 35 35 37 32 27 20 18 14 12 12 10 8 8 7 7 6 6
83 82 83 86 38 34 31 29 25 21 16 13 15 15 23 36 33 38 35 31 32 24 14 15 19 17 13 11 10 10 9 9 9
84 86 87 62 35 38 37 37 35 30 23 15 20 19 27 36 39 41 39 33 18 20 14 12 14 14 12 12 12 11 10 10 10
87 86 81 35 42 42 44 45 43 38 30 20 22 32 20 32 49 48 26 30 26 20 24 17 16 15 15 14 12 12 12 11 11
85 84 38 42 46 47 48 49 48 44 36 23 27 30 28 32 30 30 29 29 23 25 23 20 19 18 16 15 13 12 10 8 9
83 58 37 47 48 50 51 52 52 47 40 28 19 27 27 23 23 25 29 28 31 27 29 28 24 22 20 18 17 14 9 8 8
72 39 43 49 50 51 53 54 54 51 41 31 24 18 18 31 30 28 32 31 29 35 35 31 23 21 25 22 21 19 14 9 8
52 42 47 49 51 52 53 55 55 53 42 30 22 22 30 36 39 40 36 36 37 39 41 42 42 38 36 41 42 61 72 77 89

GFSFLT1_850_rhum_018.txt.gz
RH
71 69 67 56 46 46 44 42 41 41 43 45 48 52 56 60 91 88 97 84 85 72 60 62 68 59 52 55 60 60 35 40 46
77 71 61 56 45 45 51 55 59 61 66 65 65 63 65 76 90 94 94 95 90 76 70 84 80 80 77 80 83 68 57 63 60
81 76 63 55 43 45 56 64 73 77 75 72 68 65 61 75 92 91 84 87 77 57 75 84 84 86 89 87 88 93 87 75 83
79 80 70 55 42 48 65 74 72 73 74 69 62 59 60 66 65 68 74 69 44 41 48 51 66 72 73 74 72 76 77 91 90
90 86 64 48 40 52 61 66 68 72 64 60 59 53 57 59 62 55 53 44 33 34 35 40 51 54 54 52 60 60 67 84 79
72 60 51 44 40 53 61 64 70 66 61 60 43 37 36 32 40 33 32 34 34 37 40 43 48 76 74 59 56 54 50 50 56
57 58 52 40 44 56 63 65 68 68 72 67 34 30 30 31 36 33 34 35 29 81 69 72 70 68 78 71 62 58 52 53 52
65 57 42 48 60 60 68 64 66 69 51 29 28 27 24 24 32 33 30 37 98 95 92 67 68 71 70 59 51 48 48 50 55
52 74 88 91 82 78 75 76 71 45 29 27 23 22 20 26 28 30 34 25 36 52 47 44 47 50 51 49 49 55 58 59 64
62 90 95 91 77 72 72 73 47 29 25 21 17 16 16 22 30 33 34 28 33 39 42 46 45 45 45 44 43 43 44 45 46
91 92 84 75 74 76 76 47 28 25 16 13 14 16 18 19 28 37 31 30 35 37 38 38 37 35 31 26 19 13 10 10 10
90 87 80 81 82 78 53 29 25 17 13 12 15 16 18 20 28 32 33 28 30 32 31 23 17 14 11 10 10 9 8 7 7
93 83 87 86 84 71 30 29 25 22 17 13 12 14 16 22 30 32 32 30 26 23 26 22 15 15 17 17 15 12 10 10 10
80 83 87 84 81 33 34 32 33 30 25 19 14 14 15 29 29 30 28 25 29 29 18 14 12 12 13 12 12 12 11 11 11
86 82 83 84 58 36 37 39 40 38 32 23 18 18 17 28 28 35 38 32 25 21 17 14 15 16 15 14 14 13 12 12 11
86 82 84 85 34 41 42 45 45 44 39 27 19 25 26 24 28 46 44 25 25 21 18 17 19 19 18 17 16 14 13 11 10
82 77 81 62 39 44 47 48 48 48 45 34 23 25 27 32 28 24 27 29 27 24 25 22 22 21 20 19 16 14 13 10 8
88 80 80 37 44 47 49 51 51 51 49 42 28 21 26 24 21 24 24 26 30 30 28 26 27 26 24 20 20 18 17 12 15
92 83 65 36 46 49 51 52 53 54 53 47 34 24 20 18 20 24 26 26 30 29 27 29 27 27 25 24 24 22 24 26 69
89 80 51 42 47 50 51 52 54 55 55 48 36 26 23 24 34 34 29 27 26 26 29 31 36 32 32 32 30 28 29 38 70

GFSFLT1_850_rhum_021.txt.gz
RH
53 49 43 39 39 40 39 40 43 46 49 54 56 60 64 88 93 94 95 86 94 82 63 74 73 71 68 71 67 61 55 36 43
60 53 44 38 39 43 49 54 59 62 59 62 62 63 72 82 88 86 91 84 82 70 60 80 83 86 89 91 91 90 81 68 58
69 56 46 38 38 46 50 62 65 66 69 66 63 62 74 90 91 87 86 78 73 48 84 93 82 81 80 82 86 80 88 98 83
67 57 46 37 37 45 54 56 61 65 64 61 60 60 66 68 59 62 65 64 54 35 39 52 52 52 60 61 57 64 81 76 85
78 67 48 39 37 46 51 54 62 63 57 56 43 52 54 45 48 56 50 47 42 34 38 39 72 87 61 45 47 47 48 61 78
80 64 48 41 39 49 56 60 61 62 62 61 45 31 35 32 32 33 34 38 40 68 79 76 88 90 83 55 55 53 53 51 48
62 58 54 43 45 54 62 60 66 67 66 54 30 28 28 26 28 28 32 34 76 91 95 94 77 90 72 62 57 48 44 42 44
48 53 53 44 52 63 64 57 63 66 44 28 26 23 22 19 22 28 29 52 98 98 94 68 66 68 60 48 49 50 52 56 60
51 62 58 63 74 70 68 65 68 50 28 25 21 17 18 17 21 26 30 31 55 54 46 44 50 52 53 50 47 46 45 45 46
44 69 83 74 79 67 66 72 65 29 25 18 12 12 16 15 21 26 31 30 34 40 43 42 41 40 39 36 33 28 22 19 19
63 82 93 91 81 72 75 75 31 26 17 11 10 12 16 16 20 26 31 28 30 32 34 34 32 24 18 15 11 10 10 9 8
71 82 92 83 68 76 76 41 28 21 17 13 11 12 16 19 21 28 27 26 25 24 23 21 20 17 14 15 16 15 14 13 11
86 89 90 75 79 82 67 30 27 25 23 19 14 13 14 20 24 28 28 24 23 23 24 19 12 12 11 12 13 13 12 12 11
90 89 87 80 84 81 35 32 33 33 31 25 18 16 14 20 27 27 29 28 27 24 18 14 13 14 15 15 15 14 14 14 13
93 92 82 84 83 70 34 36 40 39 36 28 21 18 20 21 27 29 28 31 21 21 18 16 16 18 19 19 17 16 16 22 15
92 83 83 82 83 46 38 41 43 43 41 34 22 22 23 24 28 31 36 36 26 23 22 24 23 21 22 22 20 17 15 19 19
91 80 81 80 81 36 42 45 46 46 46 41 27 22 26 25 27 27 30 31 28 26 27 27 25 23 23 23 22 18 17 16 18
87 81 80 78 68 39 45 48 48 49 49 47 40 26 21 21 20 22 25 24 26 27 28 29 26 26 25 24 21 21 23 22 61
90 89 83 77 50 41 47 49 50 50 51 51 48 38 27 20 19 21 23 26 27 26 27 24 25 26 28 28 26 29 28 37 78
95 94 85 65 40 44 48 49 50 51 52 54 52 44 31 24 24 24 22 22 22 21 21 24 23 22 25 30 33 36 36 53 71

GFSFLT1_850_rhum_024.txt.gz
RH
40 37 36 36 34 34 34 36 39 43 48 53 55 62 79 90 91 88 92 84 94 83 64 78 76 76 72 73 77 74 62 44 35
43 40 38 40 45 48 48 52 56 56 58 60 63 68 86 84 85 87 91 92 84 69 64 84 92 88 92 94 96 92 92 80 64
43 42 39 40 48 52 60 64 61 64 63 62 60 58 66 76 79 87 89 83 75 45 80 79 86 83 84 84 82 82 82 92 94
56 50 46 40 49 60 59 56 59 62 59 56 56 56 58 60 63 66 73 65 59 40 39 44 64 81 69 76 74 74 81 84 85
64 54 47 40 45 53 54 56 59 58 55 51 44 46 48 46 43 51 54 49 44 43 42 74 82 88 91 60 53 55 52 54 71
70 60 49 41 42 52 55 59 60 60 62 60 46 32 31 32 32 34 35 38 64 81 87 88 90 95 90 62 57 56 53 53 52
75 59 45 41 42 55 59 62 66 67 65 56 33 28 28 28 27 28 29 70 88 94 95 99 93 98 72 61 50 43 43 44 47
64 60 52 45 39 50 59 62 62 66 52 30 28 24 22 21 22 24 28 83 98 98 100 66 70 60 52 48 48 50 50 52 55
53 60 54 44 46 56 57 60 65 66 33 28 24 18 13 15 20 23 28 46 63 60 46 48 46 47 44 40 38 38 37 37 36
54 59 64 63 67 67 60 62 68 52 29 24 15 12 13 15 20 23 28 30 37 42 42 39 38 36 31 24 20 17 12 9 8
56 58 78 77 71 74 66 71 71 32 25 15 13 13 14 16 19 22 27 27 30 32 33 32 28 19 16 14 13 13 14 14 14
51 54 78 86 88 81 72 73 52 28 20 17 14 14 14 18 20 25 26 26 26 26 24 23 24 16 12 12 12 12 12 12 12
62 56 74 87 93 75 78 73 31 26 25 22 18 15 15 18 23 27 27 24 23 23 24 17 14 14 13 15 16 16 15 14 13
80 74 84 94 90 80 80 55 31 31 32 28 21 18 17 20 25 27 27 27 27 20 21 19 16 16 17 18 18 18 17 18 15
86 90 93 92 87 85 80 35 35 38 37 30 24 19 21 25 28 30 29 32 32 25 22 22 20 21 21 20 19 19 18 18 23
88 91 93 95 84 83 70 36 40 42 40 35 25 23 23 26 30 32 34 40 38 28 24 23 23 23 21 21 21 20 19 19 45
86 89 93 88 81 83 62 39 43 44 44 40 29 27 29 26 28 28 34 35 32 26 24 26 27 26 23 22 22 22 19 20 30
89 86 89 86 81 82 52 41 45 46 46 46 40 31 23 26 25 26 25 26 27 26 28 27 28 25 24 22 21 21 20 23 54
85 81 86 86 81 78 42 42 46 47 48 48 48 46 41 28 21 23 24 25 26 27 25 23 22 24 22 20 21 21 26 46 73
81 84 92 90 82 64 42 42 47 48 50 51 52 51 48 39 29 24 24 24 25 24 20 20 23 21 18 17 18 24 30 53 77

GFSFLT1_850_rhum_027.txt.gz
RH
26 28 29 29 29 29 29 31 34 39 45 45 58 66 73 76 76 78 83 83 84 83 65 76 86 87 78 82 83 84 70 51 36
30 32 34 35 37 39 43 48 52 55 58 61 65 64 73 76 83 86 82 86 88 68 61 85 89 87 92 95 95 90 94 91 70
34 34 36 42 46 50 60 62 63 65 63 60 60 61 65 72 79 82 88 84 70 54 48 50 82 80 84 88 87 84 84 92 97
34 34 36 43 49 62 59 66 62 62 56 53 50 54 60 61 60 62 68 65 57 48 37 42 72 74 76 78 76 79 78 89 88
42 38 38 39 51 87 73 61 62 58 55 50 45 45 47 46 44 46 51 49 41 38 47 71 84 89 94 68 58 58 57 55 65
58 51 44 39 46 57 57 62 63 61 62 60 51 37 36 34 34 34 35 42 72 81 90 86 92 96 94 71 57 56 51 49 53
64 66 55 46 43 53 58 59 61 63 66 62 41 30 29 28 28 29 34 77 91 92 95 95 97 98 70 52 43 39 39 41 43
77 71 55 52 46 51 57 60 59 61 61 37 29 26 23 22 23 28 68 83 98 98 98 91 81 64 54 50 46 43 42 43 45
68 64 64 60 49 55 58 60 60 63 57 30 26 20 14 15 20 25 41 66 73 53 44 47 50 49 45 40 35 30 26 22 19
58 60 63 57 49 59 63 62 63 66 46 28 20 13 12 14 18 22 27 34 48 43 38 38 36 33 27 19 16 14 12 11 12
60 63 65 62 68 74 71 64 68 69 34 24 15 13 13 15 18 21 26 27 31 34 32 30 26 21 19 16 14 12 12 12 12
65 70 68 71 78 79 80 70 73 63 29 20 17 15 14 15 18 23 26 26 27 26 24 24 23 15 14 16 18 15 15 14 13
80 74 59 73 85 88 82 76 78 42 26 24 21 18 16 16 20 24 26 24 23 23 22 19 17 16 15 16 18 18 17 16 14
90 88 67 76 88 93 83 81 76 32 29 30 24 20 18 18 22 24 24 25 27 22 22 19 18 18 19 19 18 19 19 18 16
90 89 76 78 92 95 87 84 69 32 35 33 26 23 18 22 26 28 28 29 34 34 25 22 21 22 22 20 19 19 19 19 31
90 88 89 92 91 93 89 84 53 36 40 35 29 24 24 26 28 32 32 33 38 34 26 22 22 21 22 20 19 20 19 24 36
89 86 89 90 91 96 86 82 44 40 42 38 32 28 32 29 28 30 32 36 37 31 27 24 25 23 22 20 20 20 19 19 40
86 85 88 88 87 93 81 82 43 42 44 44 37 32 29 28 30 30 29 33 32 28 28 28 26 23 20 21 21 19 20 19 49
87 85 80 90 89 92 81 80 43 43 46 46 46 45 42 33 28 27 26 25 27 28 28 28 24 20 22 21 20 19 18 27 77
70 77 78 85 82 84 85 76 42 44 47 47 48 50 49 46 40 30 29 26 27 27 27 24 20 22 22 19 16 15 16 19 29

GFSFLT1_850_rhum_033.txt.gz
RH
22 20 21 32 56 65 60 48 28 36 35 46 54 60 65 68 67 69 75 88 87 54 78 92 92 88 93 94 96 93 90 82 52
26 25 24 23 26 28 31 37 47 52 53 57 60 63 68 69 71 72 70 74 71 50 67 63 82 89 94 95 95 94 98 95 93
32 33 33 34 38 45 51 58 57 57 58 58 56 58 60 66 71 71 70 65 55 48 40 45 86 83 91 91 90 88 88 89 99
34 39 43 46 51 61 67 76 60 56 52 51 52 54 56 54 51 50 52 50 43 36 42 82 86 80 69 66 66 65 63 68 88
37 38 46 53 63 79 90 63 58 52 50 50 49 46 43 40 38 38 37 34 55 80 87 90 98 94 88 81 59 51 49 46 47
39 42 43 53 84 92 77 62 58 56 58 59 54 40 32 30 29 30 30 73 89 87 95 93 89 98 89 60 44 38 34 34 36
46 48 45 47 82 66 59 59 59 60 61 61 46 30 27 25 23 24 69 87 84 81 84 82 80 67 53 33 34 33 32 32 33
64 57 54 47 42 50 55 57 57 58 60 55 34 27 23 15 16 45 90 91 97 80 66 66 61 38 34 33 31 28 25 24 25
72 69 62 56 46 42 50 55 56 55 58 59 34 26 15 12 14 26 79 82 69 58 35 33 34 31 29 24 15 13 12 12 11
68 72 72 65 52 48 47 53 56 58 59 61 34 22 14 13 16 23 31 43 49 38 31 30 30 27 21 17 12 11 11 11 11
60 69 72 73 66 60 52 54 62 60 61 64 34 20 16 14 16 20 24 29 32 31 29 26 24 23 22 14 12 12 13 13 14
56 62 64 65 66 64 55 63 67 63 65 67 33 22 18 17 17 19 24 27 26 28 24 21 22 17 14 15 14 15 15 15 14
51 57 58 61 62 66 66 74 75 68 70 68 34 24 22 19 19 21 23 25 26 24 22 20 18 17 16 16 18 18 17 16 15
46 49 58 58 70 74 75 79 82 76 76 70 32 27 24 21 20 22 24 24 23 22 22 18 19 18 18 18 18 18 17 16 16
78 51 53 59 77 84 79 87 88 85 81 69 32 30 26 23 22 23 25 24 24 24 23 25 21 19 18 19 19 19 18 17 18
80 67 52 65 86 87 73 89 92 90 84 63 34 32 28 26 22 23 25 26 26 26 28 28 24 22 21 21 21 19 17 18 19
73 72 68 81 93 88 79 88 87 89 86 59 36 33 34 29 25 26 27 28 29 29 30 31 27 24 23 24 22 18 17 18 18
59 64 77 91 90 83 84 85 85 86 88 75 39 36 34 34 32 29 29 30 31 31 31 32 28 26 26 25 22 18 18 19 16
60 62 69 65 79 83 80 78 78 82 88 77 52 40 36 34 36 35 33 31 34 33 33 32 29 28 27 25 20 19 20 18 16
64 60 61 71 67 78 81 77 81 84 89 80 69 42 42 41 39 38 39 37 36 34 34 31 30 30 28 23 20 22 21 17 14

GFSFLT1_850_rhum_036.txt.gz
RH
17 18 21 32 55 75 60 48 27 34 38 50 57 63 63 68 87 92 83 100 68 65 83 83 85 90 96 92 97 86 92 87 55
20 19 23 36 52 50 34 30 40 43 47 53 54 58 61 93 94 96 95 93 62 45 56 77 88 91 95 97 99 99 97 93 95
26 26 25 26 29 33 43 48 52 55 56 58 58 60 61 87 93 75 87 53 48 42 39 64 83 85 77 80 81 80 86 97 97
32 33 36 40 46 51 73 68 59 56 52 51 51 54 55 84 69 64 72 45 39 39 73 85 86 87 72 62 56 60 60 65 86
34 41 44 44 59 67 86 62 57 52 49 48 46 42 41 40 37 40 54 34 79 90 89 90 98 92 82 76 66 46 42 39 40
37 40 44 50 62 82 64 55 54 53 55 55 50 38 33 30 34 54 41 87 89 98 98 98 89 88 82 57 31 31 29 28 30
91 43 42 53 81 83 60 55 54 55 58 58 45 30 27 34 46 75 78 79 83 85 82 81 78 66 36 32 31 30 30 29 29
91 87 52 49 65 70 57 57 57 56 58 56 40 29 24 55 69 90 87 87 87 63 41 38 48 32 30 28 25 21 18 17 17
96 96 98 96 84 86 56 58 55 55 54 56 49 30 21 54 78 85 90 85 72 60 36 29 33 29 27 20 14 12 11 10 10
97 100 99 98 96 84 49 52 55 56 56 57 56 32 19 27 71 90 62 84 73 48 30 29 27 23 18 16 12 11 12 12 13
91 98 98 93 91 64 54 52 54 58 58 60 60 32 20 24 49 82 40 33 34 30 26 26 25 21 19 13 13 13 14 14 14
88 95 79 89 87 72 63 55 53 60 61 63 64 34 23 19 20 34 74 24 28 28 24 22 19 19 15 15 14 15 15 14 14
57 92 92 89 86 66 67 61 62 68 64 66 67 38 24 24 23 20 24 33 33 24 22 20 18 17 15 16 17 18 17 16 14
62 78 93 96 89 64 69 67 70 74 74 71 71 43 26 24 23 21 22 22 24 29 19 20 18 18 17 18 18 18 18 17 16
73 70 66 93 82 66 69 73 74 80 82 76 73 49 29 27 24 26 23 23 23 23 22 20 22 20 19 19 19 20 19 17 15
72 75 75 66 57 61 64 79 77 85 87 81 72 51 31 28 26 27 24 24 24 23 24 26 28 25 23 21 21 22 20 16 16
62 67 74 80 59 57 62 84 81 83 88 84 58 48 43 32 29 28 25 25 25 26 26 27 31 30 27 24 24 24 21 16 17
59 55 64 67 72 59 62 84 80 76 83 85 74 50 45 45 35 30 27 27 26 28 30 30 31 33 30 27 27 26 21 17 18
61 57 67 63 62 69 69 89 80 77 82 84 84 76 41 39 43 36 32 29 29 29 31 33 33 34 32 29 29 27 21 19 19
52 53 56 64 63 65 73 84 82 80 80 80 81 81 61 39 37 42 38 35 32 31 33 36 36 35 33 32 32 28 21 21 20

GFSFLT1_850_rhum_039.txt.gz
RH
18 17 36 75 89 89 77 44 29 31 45 53 59 59 65 86 89 95 89 97 70 68 80 81 86 95 91 94 97 91 94 85 56
17 21 24 34 56 52 39 28 38 41 49 52 56 59 67 90 90 91 94 68 47 46 67 86 87 92 96 96 91 96 93 93 96
19 19 28 37 36 29 31 42 45 48 49 50 52 54 60 88 92 92 86 48 40 38 56 64 78 80 81 85 87 84 82 92 89
24 25 25 27 32 41 53 51 50 47 44 44 44 46 52 81 74 67 69 39 31 48 78 84 84 70 59 62 54 48 61 66 89
29 31 34 38 46 59 72 53 49 45 44 43 41 38 40 63 40 50 44 38 84 95 94 94 97 85 68 68 42 44 39 40 43
34 39 43 41 52 82 74 53 49 46 47 48 44 35 49 52 51 62 71 89 96 93 97 97 88 76 43 52 26 26 24 25 27
69 54 47 49 67 81 65 53 52 52 52 52 44 39 38 54 57 75 76 85 84 85 88 79 67 49 27 27 27 25 24 23 23
84 79 42 53 70 75 64 52 52 54 55 55 46 37 32 56 64 76 82 84 72 58 40 28 30 32 26 24 19 13 12 12 11
95 90 92 76 88 96 75 65 61 53 54 53 50 42 44 59 77 87 89 86 71 57 53 26 28 26 23 18 14 12 11 11 11
95 92 96 93 88 88 90 77 60 55 54 53 55 48 45 54 72 85 78 82 81 76 40 25 24 23 18 16 12 12 12 13 13
95 92 97 96 93 90 86 76 61 53 50 54 56 55 42 55 65 84 49 64 63 42 29 25 22 19 17 13 13 13 14 14 13
89 88 97 98 98 93 88 79 64 53 49 53 56 59 51 43 49 75 74 35 30 28 27 25 20 19 15 13 13 14 15 14 14
83 88 88 98 97 99 95 84 64 54 53 60 57 62 52 46 49 52 70 58 30 25 24 23 19 18 16 14 15 16 16 16 16
86 84 88 90 97 98 97 87 68 60 60 62 59 64 59 41 47 43 42 53 54 33 21 20 19 16 17 16 17 17 18 18 17
95 90 90 92 93 99 98 86 68 64 63 67 66 69 63 47 44 37 39 35 28 39 22 20 20 17 19 18 18 19 20 20 18
97 94 90 91 92 88 93 86 69 70 70 67 70 68 70 50 43 39 41 34 26 25 24 20 21 21 24 22 21 21 22 22 19
99 84 82 85 84 93 94 82 72 70 75 71 74 66 66 70 44 36 40 38 31 26 23 23 24 26 27 26 25 24 25 25 21
99 94 96 93 89 84 86 84 72 63 74 80 72 69 61 53 52 39 37 38 38 29 25 25 26 27 30 30 30 28 28 28 23
94 92 97 98 92 93 73 71 73 69 71 85 77 75 56 48 49 47 40 39 38 33 30 28 29 30 32 34 33 32 31 30 25
50 91 100 93 82 88 83 80 69 68 72 86 74 80 77 65 50 44 43 39 36 36 36 32 32 33 36 36 36 33 33 31 25

GFSFLT1_850_rhum_042.txt.gz
RH
15 52 75 89 90 85 65 29 27 38 44 50 52 61 84 87 92 91 87 70 48 76 80 88 92 92 94 95 95 90 84 80 62
17 18 36 62 62 58 37 32 36 42 44 46 49 60 85 86 90 84 82 50 42 71 78 89 97 93 95 91 92 96 90 94 96
18 22 25 35 46 36 29 40 42 45 45 45 46 51 86 89 82 60 57 36 35 37 46 52 62 63 74 86 88 87 87 85 89
20 20 28 30 28 31 39 42 42 40 41 41 42 49 74 78 57 64 55 33 32 79 77 78 75 64 61 60 56 49 53 69 85
25 26 27 30 35 38 45 42 41 40 40 40 38 36 42 35 34 37 36 42 88 91 94 84 67 64 52 38 33 27 40 39 41
32 34 37 34 37 43 50 43 43 43 46 46 40 33 33 38 43 39 68 83 95 99 87 84 66 54 29 23 21 21 23 24 26
32 34 39 43 46 53 55 43 44 45 48 51 43 34 36 43 47 48 68 86 89 83 80 67 39 34 25 24 23 21 19 20 21
68 50 44 39 41 48 54 44 44 47 42 43 45 39 31 51 51 61 56 75 62 60 38 22 20 26 23 22 14 11 11 10 10
85 74 56 38 39 48 47 50 50 44 48 48 48 46 35 54 68 79 69 73 67 44 37 27 20 22 20 16 13 10 10 11 11
87 79 88 69 64 76 88 68 60 48 50 48 47 48 44 46 55 68 59 62 60 58 55 27 21 20 17 15 11 11 12 12 12
86 77 84 91 90 89 89 81 68 54 47 47 49 51 50 43 49 61 52 43 44 48 44 24 20 18 16 14 12 12 13 13 13
89 88 83 87 84 89 91 85 75 62 51 45 47 50 52 45 51 49 51 38 33 30 30 24 21 19 17 13 13 13 14 14 14
83 89 85 88 89 87 95 91 83 71 54 47 45 50 54 54 44 48 43 37 35 23 21 22 20 19 17 15 14 15 16 17 18
82 82 89 83 88 79 96 97 91 78 61 53 53 55 56 59 52 44 43 39 31 27 24 20 19 18 16 16 15 16 18 20 22
88 87 86 87 86 88 90 95 97 84 66 61 58 57 58 62 58 48 43 42 37 29 26 23 20 18 17 17 18 18 20 22 24
82 77 78 88 88 87 86 93 98 85 75 67 62 54 60 65 64 56 46 40 38 33 28 23 22 19 18 19 20 20 21 23 25
88 76 66 67 87 93 93 90 87 86 77 68 64 54 59 68 69 61 54 44 38 36 29 24 22 21 21 22 24 24 24 25 26
71 94 86 68 75 86 94 85 87 88 80 72 63 68 70 65 64 69 62 47 42 38 37 28 25 22 23 24 27 28 28 28 29
54 80 90 100 87 77 77 86 80 96 88 76 70 70 68 64 60 59 55 48 47 43 40 36 29 27 26 27 28 29 32 32 31
65 74 88 99 99 99 77 86 87 77 86 82 73 71 76 66 60 55 54 48 45 43 41 39 36 34 27 30 30 32 33 34 33

GFSFLT1_850_rhum_045.txt.gz
RH
73 76 85 90 84 73 34 26 35 40 43 47 61 74 84 89 88 72 64 46 70 80 86 90 93 95 94 91 90 92 87 87 93
19 56 65 75 71 44 27 31 37 39 42 47 65 75 81 89 85 79 61 40 74 78 78 88 82 87 89 87 87 87 91 96 94
16 19 32 37 44 29 32 36 38 39 40 43 54 80 87 86 83 54 50 33 35 36 42 48 45 46 67 87 86 86 81 77 82
18 22 25 30 27 29 36 38 37 36 37 38 46 59 60 68 44 45 41 34 50 89 86 66 58 48 50 54 52 51 59 70 77
20 21 22 24 28 34 37 38 36 37 37 36 35 34 35 34 31 35 37 53 99 95 79 64 50 41 32 20 30 24 44 44 45
25 25 27 29 32 39 39 38 38 38 40 39 34 30 28 27 28 29 62 84 95 100 62 61 39 27 16 17 17 18 22 24 28
28 30 29 32 32 39 42 38 39 39 40 42 39 31 29 30 28 30 62 87 85 70 67 53 18 17 16 17 17 17 18 19 20
30 30 34 35 34 36 42 38 38 38 40 42 43 38 32 33 31 31 43 50 49 40 30 21 16 17 18 16 11 10 10 10 10
63 59 51 43 38 41 49 46 43 40 37 38 42 42 38 34 41 47 57 53 50 42 28 26 15 16 17 14 12 10 10 11 12
81 80 69 58 48 37 46 51 51 47 45 47 44 42 45 39 39 42 49 47 42 41 43 36 18 16 16 14 11 11 12 12 13
79 80 75 71 71 62 60 65 70 55 46 48 46 45 49 45 41 49 46 45 39 40 41 35 19 16 15 14 11 12 12 13 13
79 85 82 78 78 76 79 88 88 82 65 48 43 45 50 51 46 45 48 44 42 35 39 35 20 17 15 14 12 12 13 14 15
76 84 85 83 82 91 88 83 92 90 78 65 50 46 48 54 51 49 48 44 41 37 36 31 20 18 16 14 14 14 15 17 19
82 74 71 74 80 89 95 86 83 93 88 78 64 52 48 52 55 54 51 47 42 37 34 28 22 20 17 16 15 16 17 19 22
90 85 84 79 77 79 86 91 85 90 93 90 78 60 54 54 56 59 57 53 47 41 36 31 25 22 19 17 16 17 18 20 23
88 88 86 90 84 77 80 88 89 88 95 97 88 65 60 57 56 59 59 58 55 47 39 34 30 26 21 19 17 18 19 20 23
75 80 91 87 91 87 84 85 90 89 90 98 89 65 61 62 58 59 62 62 58 54 45 39 34 30 25 20 19 20 22 22 24
60 71 76 91 92 96 91 82 72 73 84 83 90 64 63 58 55 57 62 64 62 59 54 44 39 33 28 24 22 23 25 26 26
63 64 71 77 76 85 93 98 89 79 74 90 94 88 67 63 63 61 63 67 64 62 55 50 44 39 32 29 25 28 30 30 30
72 72 67 72 76 77 86 86 100 90 84 78 83 83 83 71 68 66 64 66 62 62 57 53 50 44 41 33 31 31 32 40 34

GFSFLT1_850_rhum_048.txt.gz
RH
82 94 87 73 65 37 25 34 38 40 37 44 62 71 76 80 72 64 43 54 79 83 82 91 97 93 89 89 91 90 94 94 91
47 61 67 62 54 31 29 34 37 40 44 51 59 63 72 68 65 57 45 52 72 80 86 80 77 85 84 84 85 88 94 94 90
23 33 35 40 36 27 31 33 35 37 39 43 48 57 61 58 59 42 42 30 37 43 41 46 45 45 64 75 79 82 81 76 82
16 18 23 29 27 28 32 34 34 34 35 37 43 52 47 42 36 34 31 27 63 84 74 49 42 39 42 44 44 44 49 58 64
20 23 27 27 26 31 33 32 33 34 34 35 35 38 36 30 28 27 26 56 93 78 59 51 40 29 22 14 24 21 34 44 44
21 22 23 26 32 36 36 36 35 36 37 36 33 32 30 27 27 26 45 88 91 64 39 41 31 16 13 12 13 16 22 29 31
22 24 26 31 34 43 44 41 40 40 42 41 36 32 31 28 28 26 44 94 95 56 49 39 20 13 14 15 16 15 16 17 18
24 27 29 29 31 35 48 45 43 42 44 45 43 37 36 34 34 32 41 55 56 55 41 23 18 13 15 16 12 10 10 11 11
32 33 35 36 34 36 39 45 43 43 44 44 44 44 42 38 38 43 46 57 54 49 34 25 18 14 16 16 12 11 10 10 10
45 52 59 61 51 40 36 43 48 47 42 42 42 41 42 43 41 42 50 55 56 55 45 34 29 16 17 15 13 11 12 12 12
59 61 63 71 69 64 59 49 54 62 58 50 45 48 43 45 45 44 46 52 52 50 51 42 37 19 17 16 14 12 12 12 13
67 67 69 74 81 75 69 68 62 61 70 72 58 50 46 44 46 47 48 50 51 51 48 43 33 22 19 18 15 12 12 13 14
77 75 70 76 85 87 82 77 82 77 76 85 83 67 52 46 45 49 50 51 52 50 48 41 36 25 18 18 16 14 14 15 17
82 81 76 77 84 87 84 82 88 88 83 85 87 83 72 57 48 47 51 52 54 53 50 46 43 33 24 20 18 16 15 16 19
87 87 85 84 84 82 83 87 92 93 89 90 90 90 88 78 62 52 52 53 56 57 53 49 44 37 32 30 29 21 17 17 19
86 85 88 91 86 84 86 87 89 92 90 95 91 88 87 88 80 60 55 54 56 59 58 55 50 42 37 32 27 26 19 18 19
80 79 80 84 90 88 86 83 88 89 85 95 96 88 85 85 80 68 59 55 56 58 61 60 57 50 43 35 30 26 25 21 21
74 74 75 77 81 84 84 87 88 84 78 83 98 86 85 76 64 59 57 56 57 57 62 66 63 58 51 46 40 32 25 22 23
49 64 76 72 74 79 81 83 84 94 95 88 97 100 87 74 67 63 61 58 56 56 59 64 65 64 61 52 45 41 32 26 26
53 68 74 77 73 62 72 83 90 91 96 98 89 96 99 97 95 83 75 72 68 66 63 64 65 66 62 57 54 49 38 36 34

GFSFLT1_850_rhum_051.txt.gz
RH
81 85 80 49 36 24 31 33 31 28 32 35 42 46 50 43 37 37 36 70 89 85 89 95 88 84 91 88 93 95 93 90 86
70 68 63 44 31 26 30 33 35 36 40 45 52 53 57 44 41 40 34 56 78 73 72 81 69 82 84 90 97 98 96 91 91
47 45 47 42 31 28 30 34 36 38 42 49 47 54 58 52 46 39 36 30 40 48 36 45 42 36 45 62 73 79 80 83 86
37 36 37 36 29 30 32 34 36 38 39 46 48 54 52 44 36 37 32 29 60 78 42 39 37 34 30 35 42 48 58 66 72
18 25 27 32 28 33 36 36 38 39 40 42 51 49 46 39 32 30 32 52 97 83 48 39 30 22 18 14 15 26 34 44 50
20 22 26 28 27 35 38 40 40 40 39 39 47 48 41 34 32 30 36 77 99 73 36 35 28 14 13 11 11 13 18 30 37
22 22 23 24 27 31 36 38 38 40 42 42 41 41 37 34 34 34 39 96 100 78 52 45 24 14 12 12 12 13 14 16 18
23 24 26 28 30 33 39 40 38 38 40 41 42 40 37 36 35 37 38 88 87 72 54 37 22 16 14 14 12 10 10 12 13
22 24 27 29 32 34 35 41 45 40 40 42 43 42 42 41 40 37 41 49 58 59 58 42 30 20 14 14 12 11 10 10 10
45 36 44 50 55 48 44 38 42 48 48 46 44 42 42 43 43 42 43 49 56 64 59 57 44 32 16 14 14 12 11 12 13
57 54 53 57 59 61 62 61 48 49 56 58 52 47 44 44 43 44 48 48 53 58 59 59 57 46 24 17 15 13 12 12 13
70 68 65 64 67 74 80 76 70 67 67 67 71 72 65 51 44 44 48 50 51 55 59 61 58 55 43 22 17 15 12 13 14
80 73 69 71 76 80 86 87 86 78 81 83 79 76 80 78 64 51 46 48 51 53 55 58 59 57 51 34 31 18 14 14 15
80 77 70 77 83 83 85 89 92 85 83 89 92 92 89 88 85 78 65 52 49 52 55 57 60 57 58 64 67 35 17 15 16
85 84 85 87 92 92 90 88 88 88 85 91 94 97 96 93 88 83 84 76 60 52 54 58 59 60 58 61 89 97 58 19 17
90 93 93 92 90 90 94 97 94 92 92 95 92 90 89 88 89 87 82 81 80 61 54 56 60 61 61 58 57 91 94 78 24
90 89 85 80 86 85 86 90 94 91 93 92 87 98 88 83 81 79 77 70 80 73 59 56 58 62 64 64 56 54 76 93 74
86 84 86 87 86 88 81 86 89 91 89 91 95 98 85 83 76 69 66 62 61 60 60 58 57 60 66 71 64 58 57 86 94
50 51 53 58 65 72 74 75 74 84 88 93 96 100 100 99 93 83 80 68 68 65 65 61 58 58 62 67 72 76 72 74 85
43 44 45 49 62 66 71 72 65 80 86 92 98 100 99 100 100 100 89 88 91 85 81 80 77 64 59 64 70 76 82 78 78

GFSFLT1_850_rhum_054.txt.gz
RH
86 70 60 34 23 29 30 28 27 30 34 38 45 54 48 40 36 34 64 86 83 80 92 92 93 83 88 92 95 95 87 88 57
70 66 52 33 26 30 34 35 34 36 41 47 49 52 48 44 40 37 40 62 95 79 69 77 68 76 84 88 98 98 96 88 86
56 49 43 36 28 29 34 36 38 40 44 49 50 52 51 47 40 38 37 34 34 35 33 37 38 38 37 54 71 78 84 93 84
50 42 41 36 28 31 34 36 37 40 41 45 48 54 53 47 40 34 32 32 69 45 25 27 27 20 21 21 29 41 48 63 81
19 32 36 32 28 32 35 37 38 38 41 43 47 50 44 39 31 31 32 55 98 85 31 22 23 13 11 8 10 18 20 32 44
18 20 26 31 26 32 34 34 34 35 35 37 40 42 40 36 33 34 33 67 98 90 37 38 22 13 10 10 11 12 14 21 31
21 23 26 28 27 33 36 36 36 36 37 38 39 38 36 34 34 36 36 58 96 99 68 61 38 21 13 13 14 12 13 14 16
22 24 24 26 28 32 36 39 40 38 37 39 40 41 40 38 38 37 39 60 93 86 67 54 41 29 18 14 14 11 10 11 12
28 25 28 30 32 34 36 38 44 46 41 40 40 41 43 44 42 42 40 44 66 60 58 57 50 43 30 16 15 13 11 11 10
54 40 35 34 38 50 51 48 41 40 47 51 49 45 45 45 46 44 44 43 49 54 58 59 54 48 43 25 17 14 12 12 12
58 61 52 53 60 65 66 66 66 60 51 50 54 57 53 50 49 48 46 46 47 50 55 57 58 57 48 43 23 18 15 13 13
70 70 67 65 68 71 74 77 77 74 74 70 72 74 74 74 76 71 55 47 47 49 51 56 61 63 74 56 42 21 18 14 14
77 73 70 75 78 79 79 80 83 85 86 84 82 86 88 85 84 84 81 72 59 50 49 51 56 62 63 75 67 52 22 17 16
78 75 75 82 84 87 89 88 88 86 86 90 92 93 93 95 96 88 87 86 82 76 61 52 54 59 63 67 84 90 67 30 18
88 87 87 89 92 90 88 90 92 95 95 95 95 96 96 94 94 87 83 80 81 80 81 70 56 56 60 64 70 97 100 74 32
91 94 95 95 95 93 91 94 95 93 94 100 96 92 91 84 79 83 80 78 77 84 84 83 73 57 61 65 66 72 97 99 95
90 92 94 96 93 92 87 87 90 92 90 98 100 99 95 94 78 71 71 73 75 74 75 75 75 61 60 62 66 68 81 98 99
91 90 88 88 92 86 84 84 86 88 80 87 97 98 85 82 83 84 81 83 76 77 71 66 67 62 60 61 63 67 73 84 96
57 56 55 59 61 64 67 74 77 78 80 78 79 98 100 99 97 88 85 85 78 87 81 87 86 76 66 60 63 68 78 83 97
40 42 43 44 46 47 50 59 77 78 83 93 97 99 99 97 100 100 94 84 85 83 84 91 84 85 89 80 64 72 88 91 96

GFSFLT1_850_rhum_057.txt.gz
RH
79 49 34 23 26 27 25 24 27 31 36 43 47 43 40 39 32 46 82 82 80 88 84 71 70 82 89 91 94 91 88 72 40
59 41 33 24 27 29 29 29 30 34 40 43 46 48 46 43 35 32 38 71 87 46 52 61 53 50 75 82 88 97 91 91 91
40 39 34 27 26 31 32 32 34 37 40 42 41 41 40 38 34 31 30 30 34 33 27 33 33 29 29 36 56 60 80 86 87
49 43 37 28 26 30 33 36 37 39 39 41 44 42 39 34 30 28 30 40 54 29 26 25 18 13 12 12 16 23 33 45 81
27 34 37 32 27 31 34 34 34 34 34 35 38 37 35 32 30 31 31 52 99 56 37 36 22 13 9 8 9 13 14 17 32
18 22 26 29 28 34 36 36 34 35 35 36 38 38 36 34 33 34 34 48 92 97 43 51 37 20 12 10 10 11 13 15 23
22 23 25 28 27 31 36 37 37 37 36 37 39 39 38 37 36 37 38 44 88 96 61 56 48 33 22 13 12 11 10 13 17
23 23 24 26 27 32 36 42 44 41 39 39 41 42 42 42 40 40 40 42 89 92 70 56 52 46 36 21 14 13 11 11 11
36 25 27 28 31 34 36 39 43 48 50 47 45 44 43 43 43 44 44 42 56 73 60 52 54 50 45 35 20 15 14 12 12
49 45 29 30 32 39 53 54 55 47 46 48 49 50 51 48 47 47 47 45 46 63 53 50 52 52 50 44 34 19 15 12 13
50 57 58 48 54 63 68 71 70 70 67 63 63 63 65 64 67 70 68 55 47 46 48 50 52 55 52 50 45 34 19 16 14
61 68 71 72 71 70 72 74 77 78 81 78 77 76 80 80 79 80 82 79 70 59 50 49 51 56 63 68 65 53 38 19 15
77 76 74 78 80 81 80 79 78 79 82 81 83 87 87 87 89 90 91 88 84 81 75 64 53 56 68 82 96 93 69 50 23
81 81 80 84 85 86 85 85 88 88 88 90 88 89 91 91 91 90 85 83 82 82 83 81 76 60 60 77 98 99 99 84 59
80 81 85 90 92 90 91 94 95 94 94 93 90 89 90 89 89 87 86 80 81 84 84 86 84 76 66 62 70 92 98 99 98
88 88 88 90 94 93 92 95 91 86 88 95 87 78 86 86 90 83 76 76 75 82 86 85 82 76 72 67 65 69 88 96 94
91 93 88 90 92 92 92 95 94 91 87 94 98 97 81 80 76 81 82 78 78 78 77 76 76 76 71 69 63 65 72 90 99
85 92 92 91 91 87 86 93 93 91 89 93 96 96 82 85 89 82 80 79 80 82 83 81 75 82 83 75 62 64 70 79 91
82 82 76 70 66 62 64 69 76 88 89 85 81 85 93 100 98 88 84 82 78 81 76 80 81 83 83 82 76 69 68 79 84
41 41 42 42 43 45 47 49 51 60 85 94 87 87 98 97 100 100 93 86 87 87 83 84 75 80 86 86 86 90 82 68 86

GFSFLT1_850_rhum_060.txt.gz
RH
47 33 23 26 25 23 22 25 27 30 35 37 36 35 34 45 87 93 93 97 79 75 69 58 65 79 85 88 89 88 84 70 54
45 36 26 27 28 26 26 27 30 34 35 38 39 37 34 46 44 82 92 62 35 26 27 36 33 34 53 75 79 86 87 85 88
47 41 32 26 29 29 29 30 32 34 36 37 37 37 34 37 31 33 70 33 26 25 24 23 20 14 16 22 37 60 70 87 92
49 46 39 28 28 30 31 32 31 33 36 39 40 36 34 45 31 30 59 44 33 31 31 31 19 13 10 9 9 13 21 44 81
33 42 41 34 29 30 32 33 32 33 35 37 38 37 35 36 32 36 37 53 85 49 49 46 35 20 12 10 10 11 11 12 19
21 28 29 29 28 32 34 34 34 35 36 37 38 40 40 37 36 36 36 46 86 98 66 56 46 33 23 12 11 11 11 12 14
22 22 24 29 30 31 35 35 36 37 38 38 38 40 40 40 39 39 38 38 67 98 93 63 51 44 35 23 13 11 10 11 12
23 24 26 29 30 31 35 39 42 42 41 40 41 42 41 42 42 42 41 40 47 95 99 55 50 50 45 38 23 14 12 11 11
41 27 26 28 29 34 36 45 43 44 48 50 49 48 48 47 45 45 43 43 42 61 70 56 49 50 49 48 39 23 15 13 12
52 47 30 30 32 35 43 52 62 60 52 45 44 47 52 57 57 55 56 55 47 47 70 52 50 52 51 51 50 41 25 16 13
50 57 60 49 44 50 62 77 74 71 71 69 70 68 67 71 72 70 71 75 73 59 49 49 57 56 60 54 54 54 48 26 17
51 59 67 70 66 64 66 70 72 75 78 78 83 84 79 78 79 80 81 82 81 81 75 66 56 61 66 93 89 71 63 57 32
72 73 75 76 76 76 77 79 82 80 87 95 96 95 84 82 83 82 80 83 84 81 80 83 78 67 75 83 97 99 98 82 73
76 80 80 81 82 85 84 85 85 93 99 99 92 91 88 85 83 80 85 82 84 87 89 83 85 81 76 72 79 86 93 98 96
83 81 81 86 89 88 89 89 95 96 96 98 89 88 87 81 76 73 82 83 81 77 83 90 89 85 82 76 72 75 86 88 90
87 87 89 89 87 88 95 98 98 94 97 88 87 96 89 76 69 86 88 78 76 75 77 86 85 84 80 79 72 73 73 79 89
87 87 86 87 88 84 85 92 95 94 93 97 100 99 76 76 78 76 79 79 76 78 78 83 83 80 72 74 72 69 67 74 87
77 78 81 84 92 91 96 97 97 99 98 91 100 92 72 79 82 85 77 83 78 84 77 79 82 82 85 84 81 75 68 73 79
55 60 70 86 93 88 79 71 72 89 95 99 95 97 99 98 94 93 83 79 80 87 87 83 82 80 78 84 87 84 80 73 74
34 37 41 43 43 43 42 43 45 50 58 73 98 98 100 99 100 99 87 77 79 80 84 84 77 78 79 84 84 87 88 89 87

GFSFLT1_850_rhum_063.txt.gz
RH
34 25 26 23 21 24 27 30 32 33 32 31 31 29 40 84 89 90 95 88 43 45 49 41 38 60 68 76 76 85 84 84 88
36 25 27 27 26 26 28 31 34 34 34 33 32 30 36 73 82 87 91 29 27 23 25 23 20 21 23 36 56 64 78 85 88
36 28 25 28 29 29 30 32 35 34 34 34 34 33 39 69 59 57 53 30 23 21 22 18 14 11 10 10 15 30 44 65 83
41 36 28 26 29 30 30 31 32 32 32 33 33 34 35 64 36 56 67 38 29 32 36 33 26 19 12 9 9 10 15 23 54
34 36 33 28 28 30 30 31 31 31 32 33 34 34 38 61 50 57 35 39 46 46 47 46 41 32 22 13 11 10 10 11 14
25 29 30 30 26 29 30 31 31 32 34 34 35 38 56 56 50 50 36 36 50 62 76 66 44 43 36 25 14 12 11 10 11
75 24 26 27 29 27 32 34 35 36 48 41 36 44 60 55 42 45 39 38 38 62 92 83 46 45 45 39 27 15 12 11 11
22 29 23 26 30 27 32 34 40 63 43 40 43 41 39 43 48 46 40 40 39 41 67 75 50 45 46 47 43 28 16 13 12
58 56 62 60 72 67 88 86 85 71 44 48 48 54 52 51 54 52 44 43 43 42 46 55 51 46 46 47 49 45 31 17 13
59 70 60 68 72 75 79 82 82 84 82 80 75 69 70 69 66 60 58 62 65 60 55 79 52 49 48 48 49 50 49 34 19
79 87 76 70 61 73 78 86 91 92 91 90 86 84 86 79 75 75 75 72 74 76 72 62 56 67 60 61 55 52 52 54 37
91 89 89 87 84 77 84 89 92 94 94 94 93 91 90 91 91 81 73 78 76 80 80 78 77 71 70 87 90 85 81 59 59
92 94 95 96 96 96 96 96 96 95 94 91 88 87 89 94 96 92 89 86 84 81 76 78 79 79 77 82 90 94 84 80 74
75 96 97 97 97 98 98 98 96 94 94 93 94 93 95 96 97 96 95 97 98 83 88 81 84 86 83 82 82 88 91 86 80
87 95 97 98 98 98 97 98 98 98 98 97 97 95 97 96 97 94 89 88 95 99 81 81 80 83 88 86 82 78 87 92 92
94 96 100 97 100 99 98 97 99 98 96 98 92 88 92 93 80 73 82 85 86 75 75 80 84 85 82 79 81 79 74 82 88
90 90 95 100 99 100 100 97 100 100 99 99 99 94 87 76 71 78 77 69 81 80 79 80 79 82 85 80 76 75 74 78 82
80 83 86 91 100 100 100 100 98 98 98 98 99 89 80 76 74 78 82 70 76 84 80 85 77 85 81 77 83 82 80 75 77
73 64 58 53 57 65 80 88 92 99 98 98 98 98 99 90 80 80 82 86 84 89 85 87 88 75 79 76 79 82 86 85 79
35 34 33 33 36 38 41 42 43 43 50 64 98 100 99 98 93 98 83 94 86 88 86 84 86 85 78 74 77 82 84 86 86

GFSFLT1_850_rhum_066.txt.gz
RH
24 22 20 21 23 25 26 29 31 30 29 29 30 45 71 89 91 84 50 25 22 22 30 25 22 20 29 47 64 75 79 83 86
25 25 23 22 22 24 26 29 30 31 31 30 29 34 40 48 58 48 33 22 20 19 18 16 12 10 10 11 18 39 59 79 87
26 24 25 24 24 24 27 30 30 30 30 31 31 34 46 48 40 41 40 26 24 30 32 30 22 16 11 9 9 12 22 36 70
33 27 26 26 26 26 26 28 30 30 32 33 33 33 42 34 39 37 34 37 34 36 42 42 37 29 21 13 10 10 10 13 20
35 30 27 25 27 28 28 29 30 30 31 32 34 35 39 38 44 37 36 34 38 48 54 51 42 40 34 26 16 12 10 10 11
26 29 26 27 25 27 28 29 30 31 32 33 34 36 39 44 41 38 37 35 36 38 54 70 48 40 41 39 30 18 13 11 10
28 26 25 26 27 25 30 31 32 32 32 34 37 40 42 44 41 38 38 37 37 38 44 57 61 43 42 42 42 34 21 14 12
44 31 24 24 27 28 29 33 38 36 39 39 41 41 40 40 45 41 40 41 41 40 40 47 50 46 43 43 43 44 38 23 14
34 49 42 33 32 33 47 48 73 67 44 46 45 46 43 45 49 50 50 52 56 57 56 51 56 52 47 44 43 45 46 41 25
56 58 59 52 58 60 68 65 66 77 79 78 71 66 64 64 65 64 63 64 65 68 71 67 77 61 58 55 48 46 47 48 45
61 84 68 56 52 48 54 63 86 84 85 88 85 85 81 78 77 72 67 67 70 75 78 79 78 71 69 69 65 62 57 51 51
83 75 88 72 66 62 67 74 79 81 79 78 82 87 87 84 83 85 74 68 69 72 77 80 80 78 76 77 80 84 84 79 67
80 76 70 82 90 86 80 78 81 84 87 85 86 90 89 89 89 87 87 89 89 82 82 85 88 87 85 81 91 95 90 90 84
70 77 85 88 90 90 91 87 93 96 96 92 90 87 88 90 88 92 96 96 94 95 97 84 87 85 91 93 86 86 90 93 90
84 82 89 97 96 97 97 95 92 91 91 90 89 88 93 92 92 83 84 88 88 86 95 85 78 83 89 92 93 88 82 88 94
94 88 98 98 98 98 99 98 95 94 92 92 96 95 89 92 86 89 88 76 87 87 80 74 80 83 83 86 84 82 83 82 90
96 95 94 98 98 96 96 98 91 90 90 90 90 89 79 76 67 78 85 80 79 79 82 80 83 84 83 84 79 80 80 76 87
88 80 89 98 99 95 97 98 97 92 86 85 93 94 78 77 78 76 80 80 76 80 83 84 87 86 77 78 78 78 77 80 76
72 79 79 70 60 56 54 59 76 94 95 87 96 95 93 94 86 75 76 83 82 89 88 86 93 88 82 76 77 78 77 77 83
51 42 36 34 32 31 31 33 36 41 45 48 75 93 92 92 97 91 86 78 85 81 94 95 85 78 79 79 77 79 79 81 80

GFSFLT1_850_rhum_069.txt.gz
RH
17 20 23 25 26 25 27 26 26 26 29 51 69 76 68 55 43 30 22 19 19 18 16 13 12 11 12 19 34 44 61 71 85
20 19 20 22 24 25 27 27 27 28 28 30 36 37 44 38 37 33 24 22 24 26 25 22 18 13 10 10 10 14 28 45 64
22 21 21 23 24 26 27 27 28 30 31 32 36 37 37 35 36 35 34 30 30 36 37 36 31 25 17 13 11 10 10 13 25
25 25 24 24 24 26 27 28 28 30 32 33 33 36 37 36 35 35 33 35 40 42 47 40 40 39 32 22 14 12 10 10 11
26 25 25 26 26 26 27 27 29 30 31 33 35 36 37 36 34 37 36 34 35 45 54 58 43 39 41 38 27 17 13 11 10
28 27 26 25 26 27 28 28 29 30 31 33 35 37 39 36 38 37 36 36 36 35 37 36 49 41 39 40 41 33 21 15 12
31 28 27 26 26 27 29 30 31 31 32 33 34 36 37 37 37 37 38 39 39 39 39 44 51 47 41 40 40 42 37 24 16
40 32 23 24 25 26 26 30 34 38 36 34 37 37 39 42 40 40 43 46 48 53 53 52 51 51 45 43 42 42 43 40 27
34 31 35 29 29 30 32 36 39 42 46 51 52 50 48 50 54 53 55 59 61 63 67 67 66 70 60 57 53 46 44 45 43
42 44 42 37 31 32 37 40 49 48 64 62 66 65 67 68 68 64 65 65 68 71 74 75 74 78 71 67 66 63 55 50 50
56 54 56 48 44 46 46 51 62 76 78 81 82 76 79 79 76 72 70 72 72 75 77 81 84 86 84 74 69 67 73 76 64
61 58 59 60 57 58 56 62 72 78 81 80 81 81 88 90 90 89 84 80 85 88 88 86 86 88 86 87 89 90 88 83 83
63 58 64 69 71 74 76 74 72 75 80 83 89 90 90 87 88 90 91 93 96 91 91 94 91 88 92 91 90 92 98 98 92
68 63 70 75 81 86 86 86 88 93 94 93 88 84 83 82 82 87 92 93 85 82 82 89 90 86 87 89 90 92 92 95 100
76 78 80 87 94 95 97 98 94 90 89 89 87 87 89 87 90 87 82 84 88 92 86 84 92 76 81 87 90 88 90 89 93
89 88 90 96 98 97 96 95 92 88 85 87 83 82 80 76 79 73 71 93 93 80 90 92 81 78 82 81 83 84 82 81 84
98 98 95 98 98 98 97 98 90 87 88 83 82 84 78 70 71 70 67 90 91 86 85 73 79 83 85 81 75 76 78 78 76
97 100 100 100 99 96 96 98 99 94 89 86 88 95 86 84 79 79 77 87 83 78 79 77 84 86 86 77 76 74 74 74 75
84 86 79 90 98 94 79 75 76 90 69 66 76 92 99 97 96 82 75 81 82 87 84 84 89 84 85 82 73 72 78 77 78
66 73 92 88 58 39 33 32 33 36 40 42 43 49 61 90 99 93 73 80 82 86 94 86 79 82 81 76 75 69 69 77 80

GFSFLT1_850_rhum_072.txt.gz
RH
19 20 22 21 23 24 25 25 35 46 56 57 58 57 56 49 33 22 21 21 21 20 20 18 14 12 11 13 18 30 43 63 82
19 20 20 21 23 24 26 26 27 30 36 38 38 39 36 37 36 31 25 28 31 32 32 29 26 19 14 12 11 13 18 27 46
20 20 22 24 25 27 28 29 30 30 30 33 37 38 33 36 35 33 36 35 35 40 38 36 36 34 27 19 14 12 11 13 17
22 22 23 25 26 28 29 29 30 31 31 32 33 37 34 34 35 35 34 34 39 45 49 50 36 38 38 34 25 17 13 12 12
27 26 26 26 26 27 27 28 29 30 32 34 35 37 38 35 36 38 38 36 36 38 38 41 47 39 38 39 38 30 20 14 12
26 25 26 27 28 28 29 30 30 30 31 32 33 35 37 34 35 37 38 39 39 39 40 43 48 45 41 40 40 40 36 24 16
31 30 29 27 28 28 29 30 31 31 32 32 32 33 35 36 37 39 41 43 46 49 52 52 53 52 49 46 44 43 42 39 27
30 27 24 26 27 27 29 30 32 35 37 35 34 35 39 40 43 45 49 54 58 62 65 66 64 67 65 59 57 49 45 45 42
35 27 27 24 26 28 30 38 43 49 48 53 58 59 58 57 58 58 58 64 67 70 71 72 73 75 76 68 68 63 53 50 50
34 31 34 34 32 34 35 39 41 43 54 62 69 72 70 67 67 67 67 70 73 74 75 76 76 81 82 78 73 73 73 71 60
52 46 44 43 38 39 41 43 48 59 67 70 74 74 73 75 81 84 81 81 83 87 89 87 85 85 87 82 81 83 83 81 84
62 54 50 55 55 54 55 53 58 68 73 76 79 80 82 86 89 85 86 88 90 96 91 89 92 91 76 81 88 94 95 91 91
70 63 57 67 73 74 74 70 72 75 79 81 85 87 86 87 83 82 82 88 91 91 82 81 86 81 80 78 84 87 94 99 100
80 71 66 72 75 82 87 91 91 88 90 89 88 87 88 81 82 81 86 89 94 93 86 79 83 87 89 75 78 82 89 96 98
88 78 73 80 84 91 94 94 95 91 88 89 85 84 86 85 77 77 79 78 89 90 88 87 84 94 86 79 78 78 81 85 86
91 83 81 82 90 94 92 95 92 89 89 84 82 81 79 79 73 72 72 69 76 76 79 79 83 86 74 80 82 77 78 79 81
95 92 89 90 92 96 95 96 95 95 86 84 82 83 82 75 67 72 74 68 79 73 86 87 79 74 75 78 72 72 72 72 73
93 94 96 98 99 98 98 99 96 92 92 92 94 93 86 88 84 82 82 80 81 88 81 80 79 73 83 80 78 76 76 74 76
92 95 99 98 100 100 99 99 98 87 82 74 93 78 95 98 86 83 84 90 86 86 85 89 85 90 90 84 84 70 73 68 66
78 74 82 80 74 83 85 71 47 42 37 38 38 40 46 67 99 94 97 82 75 84 84 91 96 96 90 86 80 78 74 69 71

GFSFLT1_850_rhum_075.txt.gz
RH
56 31 22 21 22 21 29 35 41 42 37 35 39 40 37 33 24 23 27 30 31 30 28 25 20 16 14 13 18 22 36 88 91
20 21 22 22 22 23 25 29 33 32 32 32 33 33 35 36 33 32 30 32 37 39 37 36 35 29 21 16 14 14 14 18 42
21 22 23 24 24 25 26 27 28 29 30 32 33 32 33 33 32 32 34 38 41 45 50 44 36 37 36 30 22 17 14 13 14
21 23 25 26 27 29 30 31 31 32 33 35 34 35 34 34 34 35 34 34 36 38 38 40 42 37 37 37 36 29 20 15 13
23 24 26 28 29 29 30 31 33 33 34 34 35 36 37 36 35 37 37 37 37 38 39 42 44 42 39 40 39 39 35 25 18
25 25 25 26 27 28 30 31 32 33 34 36 37 39 40 38 38 38 40 42 45 47 50 52 53 54 50 48 45 43 42 38 28
27 27 28 28 28 30 31 32 32 33 35 37 37 38 38 37 38 41 45 49 54 58 60 63 62 63 66 60 59 54 47 45 41
34 34 31 30 29 30 31 32 33 35 37 38 38 39 40 43 48 51 53 59 62 65 66 67 68 69 72 68 66 65 55 50 49
35 36 30 29 30 31 32 34 38 46 46 48 54 58 61 62 63 64 64 65 67 70 72 73 75 76 79 78 73 70 69 67 59
43 36 34 34 30 35 39 50 52 55 56 66 69 72 71 72 74 74 78 78 81 85 89 88 83 76 77 74 79 84 81 76 77
47 38 42 46 42 43 48 52 55 58 69 75 76 80 78 78 80 82 82 85 88 92 96 91 90 88 86 75 76 79 84 86 88
63 61 52 53 51 50 52 52 55 60 71 76 80 83 84 85 86 85 80 82 83 92 93 86 82 85 76 74 77 87 92 94 96
83 75 60 60 63 62 61 66 66 71 75 77 82 88 88 84 82 81 80 82 85 87 91 86 80 84 85 78 72 75 88 92 98
90 84 72 68 69 74 79 84 87 86 85 87 88 86 85 86 83 82 79 78 83 90 94 90 77 83 86 80 72 74 80 85 87
91 90 83 75 75 79 86 88 86 90 88 86 85 82 80 81 81 80 76 76 76 76 79 88 82 85 85 84 72 77 79 80 84
89 90 88 78 81 83 86 89 91 89 88 84 83 79 79 77 67 67 66 69 76 73 75 75 84 91 84 72 77 82 75 72 74
87 89 94 88 86 91 92 90 89 91 91 86 86 86 76 67 67 63 58 74 74 77 73 75 87 87 76 68 81 80 76 75 73
85 84 89 94 96 94 94 96 95 92 90 85 88 86 81 83 80 86 77 79 78 87 86 90 86 81 83 72 84 85 83 79 69
80 88 93 96 98 98 99 97 98 99 88 90 90 91 95 100 82 76 84 81 79 88 90 88 78 80 86 85 85 88 77 73 68
87 86 84 86 81 74 66 62 81 82 69 37 34 37 41 45 72 74 48 76 70 86 88 88 88 87 89 80 92 86 80 75 71

GFSFLT1_850_rhum_078.txt.gz
RH
70 51 20 21 24 32 33 32 34 36 35 38 35 33 31 26 26 28 32 35 37 36 35 34 30 24 19 16 16 16 22 83 89
49 23 20 21 24 32 36 36 37 37 38 37 35 36 35 33 34 34 35 37 41 43 45 36 35 35 32 26 20 16 15 15 17
20 20 22 22 24 30 34 37 39 40 39 39 37 35 36 35 34 33 34 35 37 38 40 42 37 36 36 36 33 26 20 16 15
20 21 22 24 25 27 29 31 33 33 36 38 37 36 37 36 36 35 34 34 36 38 40 43 45 41 39 39 38 37 33 26 19
22 25 26 28 29 30 30 31 33 35 35 36 36 37 36 36 35 36 38 39 42 46 50 53 54 52 48 47 45 43 40 37 31
25 27 29 30 32 33 34 35 35 36 37 37 38 39 39 38 38 40 43 46 52 56 59 60 59 59 60 58 57 52 46 44 40
28 29 29 31 32 33 33 34 35 36 37 38 40 42 41 41 42 45 50 55 59 61 62 63 64 63 64 66 63 61 54 50 47
30 30 30 30 31 32 32 34 34 37 40 42 43 42 44 48 53 57 58 62 64 66 67 70 71 72 72 74 70 65 64 63 57
35 34 34 32 30 30 33 35 37 41 50 48 53 61 65 66 69 69 68 71 74 78 80 84 84 77 78 81 80 79 73 71 72
42 43 36 32 31 32 32 36 46 53 54 60 68 74 74 74 74 75 80 84 87 88 91 90 83 80 78 76 68 74 83 85 83
56 48 39 41 39 42 41 48 49 54 56 67 71 74 74 74 75 79 81 83 83 87 91 85 84 84 84 70 72 76 76 79 83
66 60 50 52 53 50 52 53 54 57 62 71 75 77 79 83 84 84 79 79 81 80 80 78 87 79 81 76 73 70 80 93 98
81 77 71 64 63 59 58 61 62 65 72 76 81 87 88 86 81 85 80 79 77 77 77 77 88 79 75 77 73 72 73 77 81
86 87 82 78 70 70 74 76 80 82 84 85 87 85 85 85 81 78 82 79 79 76 84 88 93 82 81 80 75 73 73 76 77
87 92 93 87 80 76 77 83 91 87 91 87 84 82 83 80 80 75 74 72 73 76 77 76 79 80 84 86 79 70 77 79 76
80 87 96 96 88 79 82 89 88 86 88 85 80 82 80 69 65 60 56 53 52 66 75 70 76 82 92 89 69 64 78 76 73
84 86 88 94 94 90 94 90 87 89 90 88 87 82 66 59 60 67 66 66 68 77 77 78 73 87 90 80 67 68 80 79 77
79 80 84 85 90 90 91 92 90 89 90 94 94 88 76 83 79 71 72 78 75 76 74 74 84 90 83 78 78 75 84 85 82
82 84 82 82 83 90 85 85 83 84 88 94 100 98 98 98 79 49 60 70 78 85 85 87 85 82 82 74 87 92 87 87 74
85 87 86 86 90 85 81 75 77 75 66 55 55 48 41 45 56 52 43 56 66 72 71 89 88 86 87 83 83 82 91 84 81

GFSFLT1_850_rhum_081.txt.gz
RH
62 28 18 23 32 33 35 39 40 42 41 39 35 30 27 28 30 34 36 39 41 39 35 35 33 30 25 21 18 17 19 25 50
50 19 20 25 31 32 36 38 39 41 38 36 36 33 32 32 33 34 36 39 42 44 41 36 35 35 34 31 27 22 18 17 16
32 20 21 26 32 32 34 36 37 39 38 36 35 36 35 34 34 33 34 36 38 38 41 42 39 38 37 37 36 33 29 23 18
22 22 23 27 34 39 43 43 41 39 39 39 37 38 38 37 37 36 36 37 40 44 47 50 49 46 45 44 42 40 37 33 26
23 25 25 27 34 36 36 35 35 36 39 40 41 42 40 40 39 39 41 45 49 53 55 55 55 56 55 54 52 47 44 41 36
27 29 29 29 29 32 33 34 35 36 36 38 40 41 42 41 42 43 46 52 56 59 61 61 61 62 64 62 59 56 51 48 44
30 30 32 34 34 34 35 35 36 37 38 38 39 41 41 42 44 47 51 58 61 62 64 66 67 68 69 69 64 61 59 57 54
30 32 32 34 34 34 34 36 36 35 38 39 40 40 42 46 52 55 56 58 61 66 71 76 78 75 72 77 75 70 67 65 65
31 31 32 33 34 34 35 36 36 38 40 44 42 50 60 62 64 62 63 67 73 78 84 88 82 76 76 71 66 65 68 75 74
35 34 35 34 34 33 34 36 37 42 51 53 61 67 69 68 69 70 74 79 84 87 91 87 84 76 83 79 63 65 70 76 78
43 44 44 38 35 32 34 38 50 54 55 56 68 73 76 75 75 78 80 81 80 84 81 80 79 80 80 78 73 75 66 66 75
53 55 50 40 47 43 44 45 53 56 58 68 73 76 76 80 83 82 82 78 78 76 76 76 73 73 77 74 80 76 69 68 68
50 63 61 56 58 57 53 54 57 59 64 72 77 83 85 84 83 82 78 81 78 78 78 75 75 79 82 72 77 81 69 63 68
71 83 82 85 72 66 65 63 65 71 78 84 84 83 83 83 78 82 80 78 78 74 74 74 79 80 80 78 75 85 74 67 70
84 87 92 93 88 77 79 80 84 90 88 89 86 85 80 81 79 70 71 70 63 53 61 71 77 74 77 79 82 84 68 66 76
90 88 86 90 91 84 82 86 91 91 84 88 80 82 81 65 64 52 48 54 50 47 64 74 70 72 75 80 80 75 66 68 78
82 87 82 84 92 95 89 90 91 84 87 84 82 85 75 59 61 70 67 45 58 59 76 76 76 74 75 80 80 76 75 78 82
81 86 84 83 81 82 90 89 86 89 83 88 85 80 83 84 81 71 57 51 69 57 58 73 62 75 80 86 77 74 74 83 90
93 85 81 85 89 95 86 89 87 84 84 81 84 77 86 92 91 46 42 50 50 62 66 66 83 82 80 78 79 78 78 93 92
82 80 76 86 87 98 100 94 87 78 70 80 72 63 59 42 47 51 40 50 57 63 58 63 71 82 84 88 87 84 92 94 91

GFSFLT1_850_rhum_084.txt.gz
RH
59 19 19 46 37 32 37 39 36 35 34 29 25 26 30 36 60 47 43 46 43 36 33 33 32 30 26 22 19 19 21 28 51
36 18 25 35 36 36 42 42 43 43 38 38 34 33 34 48 48 70 88 42 40 39 38 36 36 35 34 33 30 26 22 19 17
26 22 31 39 40 43 45 43 42 41 37 37 36 35 34 36 35 43 79 38 40 44 46 44 42 41 40 39 37 35 32 28 23
25 25 35 42 41 42 46 43 42 40 39 36 36 37 35 45 36 38 73 40 46 50 53 52 52 50 49 48 46 42 39 36 31
24 24 31 40 40 43 43 39 37 37 37 38 38 38 37 37 37 40 46 48 52 55 56 56 56 58 57 56 56 50 46 43 40
24 29 27 39 43 43 40 35 35 36 37 37 38 37 38 38 40 42 45 51 55 58 60 62 62 65 67 64 59 57 54 52 49
85 30 30 32 34 33 34 34 35 36 38 38 38 40 38 39 42 45 48 54 57 60 66 70 71 72 70 73 69 65 61 60 58
35 33 34 35 36 37 36 37 39 38 39 38 42 42 40 48 49 52 52 56 60 67 75 82 78 73 71 72 70 64 63 65 65
53 68 51 46 38 41 38 44 38 36 39 44 46 41 50 60 60 66 60 64 73 80 85 84 80 74 77 79 69 63 65 68 72
32 34 34 35 34 35 36 37 38 38 41 51 55 72 77 79 68 71 68 73 78 83 86 82 80 81 81 79 68 65 63 65 70
32 32 33 34 35 35 35 36 38 50 57 82 76 79 72 76 76 81 83 77 77 76 79 78 76 74 76 74 77 76 66 59 62
44 44 48 49 45 41 38 38 46 62 57 69 84 86 91 89 90 92 91 86 77 79 75 73 72 74 80 78 83 79 78 67 62
58 66 67 62 49 50 48 52 55 64 75 80 87 90 92 92 89 88 88 89 86 86 74 79 80 77 75 80 83 84 80 74 62
63 46 61 72 61 61 60 58 61 81 76 77 88 92 92 89 87 82 84 90 74 84 84 64 74 75 78 77 78 81 81 78 66
58 46 80 87 82 75 68 64 61 75 84 94 92 89 87 85 85 82 86 85 59 56 49 50 76 71 77 73 79 78 86 75 66
82 75 89 95 93 86 76 75 81 83 94 90 82 83 85 84 80 80 63 66 43 40 45 69 78 82 71 76 79 79 85 72 70
86 85 97 98 95 94 89 85 91 94 91 84 90 76 74 78 70 78 52 50 34 44 43 60 78 76 66 74 76 86 84 76 75
80 87 85 88 98 99 100 95 91 87 82 82 83 78 68 77 74 80 62 40 50 51 47 53 67 62 77 82 83 87 82 77 81
91 91 92 86 95 99 99 93 90 93 89 85 82 80 87 77 67 80 61 45 49 48 49 52 49 71 85 87 84 80 82 80 81
89 93 90 81 90 98 98 100 91 97 100 92 84 79 62 58 64 61 66 58 67 54 49 55 54 56 76 84 84 83 85 84 90

GFSFLT1_850_rhum_087.txt.gz
RH
71 39 55 100 82 41 46 38 33 31 27 25 26 28 41 76 79 62 47 41 36 33 33 33 32 30 27 24 22 20 19 22 37
52 32 96 98 41 44 43 40 37 36 31 27 29 31 42 82 89 93 49 36 36 38 37 37 37 37 36 34 32 29 25 21 19
28 21 87 70 41 45 45 40 40 38 36 32 32 33 35 77 82 95 38 36 40 44 47 45 44 44 43 42 40 38 35 31 26
20 27 70 41 42 44 46 45 40 36 35 34 33 33 36 71 60 83 62 42 46 51 52 52 52 51 50 50 48 44 42 39 36
24 32 60 44 45 46 46 44 41 38 36 35 35 34 36 66 40 66 45 46 50 53 54 54 55 57 58 55 53 50 48 47 44
25 39 71 55 50 49 45 40 39 39 37 36 36 37 56 65 67 67 44 49 52 55 57 58 61 64 64 64 60 57 54 52 51
82 35 42 46 52 48 44 38 36 37 39 36 37 41 60 59 59 62 46 51 53 55 61 66 71 72 68 68 67 63 61 58 57
92 39 32 44 50 44 37 36 36 38 66 64 53 62 59 57 60 53 50 52 56 62 70 78 77 72 71 70 67 59 60 62 66
95 40 33 36 36 53 40 48 57 60 60 63 61 62 57 59 64 66 58 56 62 72 81 84 80 76 75 78 71 62 59 63 68
88 86 81 84 72 80 77 74 69 61 62 65 67 64 69 72 74 79 69 66 71 78 81 82 78 75 82 79 76 73 69 60 57
88 85 84 82 79 66 61 63 67 63 65 72 78 78 81 82 82 85 84 78 74 76 76 78 78 77 74 76 75 86 77 70 58
76 77 66 42 46 65 70 66 65 71 73 79 77 78 81 84 85 84 87 87 82 76 76 78 78 75 70 76 84 85 81 74 69
49 66 70 86 86 55 67 54 57 83 84 80 76 82 86 83 81 82 82 81 83 87 87 84 76 80 78 72 76 82 80 75 76
62 63 65 87 92 81 75 81 80 83 80 77 74 81 83 84 82 78 75 77 83 90 88 81 55 61 75 76 75 80 82 80 84
97 77 66 92 94 91 88 86 87 82 78 75 79 86 86 84 78 75 74 79 83 78 80 56 80 89 75 78 75 78 77 81 86
92 92 79 91 95 99 91 89 84 84 78 81 86 86 81 78 76 74 77 72 78 42 42 45 64 97 90 72 72 81 84 87 86
89 90 88 97 97 97 98 94 88 86 87 88 84 86 77 75 77 74 77 73 70 57 39 36 37 57 82 73 64 77 80 89 77
85 84 83 93 89 94 95 98 94 91 91 89 83 76 70 65 72 75 80 70 67 78 58 37 37 44 53 59 78 84 84 85 81
80 84 86 79 87 91 98 94 99 99 94 89 82 80 80 72 66 76 67 48 48 61 69 53 44 41 53 75 89 93 92 89 82
67 90 95 85 90 96 85 97 92 100 95 93 91 90 86 80 78 74 61 69 63 62 70 68 57 52 53 63 74 86 88 85 80

GFSFLT1_850_rhum_090.txt.gz
RH
85 60 45 99 99 93 34 31 29 27 26 27 27 40 62 51 52 46 40 36 33 33 33 32 32 31 29 27 26 24 22 20 20
84 55 88 96 58 37 36 30 29 27 26 27 31 42 59 77 85 42 35 34 36 36 37 38 38 38 38 37 35 33 30 27 23
75 36 96 49 39 51 53 34 33 30 29 30 33 41 53 70 76 45 36 38 41 44 44 42 42 43 43 43 42 40 38 35 32
67 84 97 49 46 62 43 41 38 36 33 32 33 37 49 62 65 66 44 42 45 48 47 46 48 49 50 49 47 45 44 43 40
35 98 98 43 44 50 46 44 38 35 34 34 34 34 46 46 54 64 48 46 47 48 48 50 54 57 60 58 54 51 49 48 47
30 99 98 48 46 48 47 44 40 38 36 35 36 37 48 58 66 57 45 48 49 49 52 56 60 65 63 64 62 59 58 53 53
28 80 100 71 50 50 45 42 39 38 38 38 37 40 50 60 59 56 47 49 51 52 56 63 70 70 65 64 64 59 59 58 58
36 46 98 64 50 49 44 40 36 37 38 48 43 54 63 57 56 50 50 49 51 56 64 73 73 72 70 73 70 59 56 59 61
54 47 40 40 46 47 45 37 38 40 60 65 55 62 53 52 61 60 64 56 56 63 72 80 80 75 77 78 77 73 64 60 57
69 60 35 39 47 41 43 45 56 62 55 55 63 61 58 68 71 72 69 66 64 70 74 76 75 74 74 76 81 78 74 69 60
73 68 46 48 59 62 80 66 70 63 56 62 68 66 73 78 78 81 81 83 81 75 74 74 74 73 69 66 76 84 88 78 69
84 90 87 81 79 70 63 56 63 63 64 63 75 78 78 82 77 81 86 87 85 84 83 80 78 76 75 72 72 78 80 82 74
72 79 68 58 52 48 59 60 61 62 66 77 76 76 78 82 84 80 85 84 81 85 88 87 89 77 67 67 68 75 78 79 74
60 55 53 56 66 64 59 54 52 54 62 79 76 76 79 83 82 82 80 75 80 82 79 74 62 54 54 58 66 72 72 81 80
81 78 74 83 90 88 76 70 72 75 80 74 72 75 82 83 83 80 74 75 77 76 58 48 39 52 66 62 68 69 70 78 83
92 91 81 78 92 90 82 79 75 80 79 80 77 78 81 81 80 77 77 76 73 55 35 35 39 45 52 58 66 69 77 88 83
92 97 88 74 80 90 90 95 91 84 82 77 80 83 81 75 78 76 76 71 72 61 40 37 34 35 39 38 49 66 73 83 87
85 86 85 87 83 92 95 97 98 93 88 81 84 88 82 77 77 75 74 74 52 62 70 52 37 40 42 42 42 66 82 90 87
76 78 78 84 87 89 94 82 85 94 92 94 91 83 79 72 75 75 76 69 56 57 60 60 48 47 43 50 58 80 93 98 94
70 60 61 65 77 77 81 81 74 78 86 83 86 94 92 86 78 79 73 67 63 52 59 59 62 50 60 48 48 64 87 97 94

GFSFLT1_850_rhum_093.txt.gz
RH
82 57 68 86 74 50 37 31 37 35 33 28 36 51 55 47 40 38 35 32 32 33 33 33 33 33 33 32 31 29 27 25 22
99 54 70 94 95 28 27 29 30 28 28 29 45 50 47 44 49 37 34 34 36 38 38 39 39 38 39 39 38 36 34 32 28
100 76 92 90 41 29 30 28 28 26 27 32 42 50 52 48 49 38 38 40 43 45 42 41 41 44 45 45 43 42 40 39 36
98 95 97 73 34 45 32 32 29 28 30 33 39 46 51 46 50 50 40 44 46 46 44 44 47 52 53 50 48 47 46 45 43
79 92 95 50 82 77 36 36 36 34 33 34 36 47 51 49 48 49 42 46 45 44 46 51 54 58 60 57 55 54 53 50 47
82 98 99 92 92 49 38 39 37 35 35 36 36 41 50 53 52 50 44 45 46 45 49 55 62 64 61 61 60 59 56 54 53
79 99 96 97 57 47 44 41 39 39 38 39 39 44 51 53 58 53 48 46 46 48 53 61 65 64 62 68 67 58 53 56 59
48 98 96 68 48 49 46 42 39 39 40 40 42 54 57 54 53 51 50 48 49 50 58 67 70 70 72 73 70 67 59 57 56
38 90 97 52 46 51 47 42 39 37 43 47 52 54 56 56 51 58 60 59 54 57 66 71 74 70 69 78 77 72 72 64 56
43 48 83 46 47 50 47 44 37 40 46 50 54 59 57 49 60 68 68 66 64 64 68 70 68 66 70 68 75 80 84 77 71
70 60 55 46 48 50 46 40 48 53 54 48 55 58 60 72 76 76 76 74 83 80 72 69 71 73 71 68 66 75 83 88 79
91 68 52 35 44 47 50 57 56 62 58 57 60 61 65 77 80 80 79 81 81 79 84 82 77 77 70 70 73 71 80 79 81
98 78 59 47 56 72 63 60 54 58 62 60 61 74 79 75 83 83 80 84 80 80 86 84 81 68 56 48 67 69 71 80 82
88 85 87 84 78 68 60 50 52 56 56 56 67 70 76 78 82 84 77 81 78 81 84 80 59 46 44 49 53 66 72 75 81
83 90 84 76 67 56 59 57 56 51 50 56 67 72 77 82 82 82 79 75 74 79 80 68 38 36 44 53 62 63 72 69 77
82 75 71 70 73 74 73 70 62 60 71 80 77 72 75 84 80 83 79 71 74 78 75 38 34 34 40 46 57 67 67 74 86
90 84 87 89 92 93 88 81 77 78 80 82 82 79 77 76 74 79 78 74 77 76 52 44 39 36 36 38 45 55 68 77 87
83 82 88 90 83 87 91 89 89 87 86 84 80 86 84 79 79 79 81 75 76 60 50 51 53 43 38 39 43 48 71 81 88
87 84 84 90 82 76 79 89 89 86 77 91 88 84 84 83 82 81 80 78 72 53 55 51 49 44 44 42 42 53 83 99 97
70 69 87 78 79 79 76 67 75 73 78 87 84 83 78 78 99 88 81 79 70 65 62 55 58 52 47 48 47 52 68 96 93

GFSFLT1_850_rhum_096.txt.gz
RH
88 53 74 78 83 82 53 33 42 37 36 48 47 44 43 41 40 36 32 32 32 33 34 35 35 35 35 35 34 33 31 29 27
97 61 80 80 71 73 44 38 38 36 32 43 51 46 46 46 37 34 34 35 37 38 38 37 38 40 41 40 38 37 36 35 33
93 70 86 92 76 47 35 34 30 30 30 47 47 43 48 48 40 36 38 40 42 41 40 40 44 46 46 45 44 43 42 40 40
95 71 84 100 63 31 30 29 28 28 32 45 52 43 43 44 51 40 41 42 43 42 42 45 49 52 52 51 48 47 47 46 45
91 82 94 94 50 33 30 30 27 28 33 40 48 48 46 43 48 43 42 44 44 42 45 48 54 58 56 56 55 54 53 50 47
98 94 71 84 60 79 36 34 33 33 34 37 42 50 46 41 46 46 40 43 44 45 48 53 61 61 58 60 60 55 51 49 48
99 89 61 91 87 95 44 39 38 38 37 37 38 43 48 45 45 47 44 45 45 46 52 58 63 62 60 66 64 57 53 54 54
99 93 96 98 100 73 49 45 39 38 38 40 40 46 47 43 41 48 49 48 48 49 54 62 64 65 67 70 71 68 64 61 56
98 84 92 97 65 49 46 47 44 41 40 40 41 47 52 51 46 50 58 58 54 54 59 64 66 61 63 72 74 73 71 70 65
100 82 88 79 63 52 49 48 44 41 40 44 46 49 53 51 47 58 69 67 64 62 64 67 65 61 63 62 66 76 78 83 78
100 94 99 92 59 58 51 47 43 38 39 41 42 45 50 55 62 68 74 77 73 78 74 72 69 69 67 69 68 67 72 84 84
80 84 89 84 54 60 58 53 44 46 50 48 43 49 53 59 72 75 75 77 78 81 80 79 77 72 75 74 70 69 72 82 77
86 74 52 55 50 59 61 52 51 55 54 48 51 53 62 65 75 79 80 78 80 82 80 83 83 79 69 59 52 66 66 76 77
74 93 95 75 53 53 58 60 58 56 55 54 56 58 68 75 75 81 83 82 81 80 79 82 82 72 48 47 55 50 65 71 77
69 74 85 84 56 81 72 60 64 56 53 57 58 63 73 78 77 80 83 82 82 78 76 80 81 52 35 43 48 57 60 69 75
76 78 87 88 90 76 69 72 62 53 60 62 59 67 72 76 77 80 77 77 75 76 77 79 75 36 34 37 42 47 63 70 76
87 88 82 93 92 89 80 66 60 61 63 66 79 81 76 74 82 82 78 73 76 72 75 78 64 38 38 36 38 42 46 60 76
82 82 82 94 86 71 70 77 80 70 72 78 80 84 78 73 74 75 78 81 80 76 75 76 44 48 48 43 41 40 41 54 77
86 91 90 77 74 76 78 80 76 73 80 86 88 81 76 81 83 80 80 83 84 78 77 57 52 52 52 51 45 44 43 74 87
94 93 89 86 87 74 65 72 64 68 69 68 74 84 81 80 82 78 84 84 82 85 78 62 55 55 55 49 47 45 48 60 84

GFSFLT1_850_rhum_099.txt.gz
RH
81 58 73 87 82 84 69 45 40 32 33 38 44 45 42 37 34 32 31 31 33 34 34 35 35 35 35 35 35 34 33 32 30
96 67 79 89 84 81 50 41 35 32 35 37 42 44 42 40 35 33 34 35 37 38 37 36 39 41 40 39 38 38 37 36 35
88 73 80 83 80 79 45 43 36 34 34 37 41 46 48 40 35 36 38 40 41 40 40 43 46 48 46 44 43 41 40 39 38
90 80 81 85 84 69 47 41 35 32 32 42 44 44 46 44 38 37 40 41 41 41 44 47 50 53 50 49 47 47 47 44 42
95 82 80 82 95 58 41 36 30 30 34 41 44 43 43 47 47 39 41 43 43 42 44 49 54 54 52 52 53 51 48 47 46
98 82 73 78 67 34 35 32 28 29 34 40 40 42 42 39 44 42 40 42 44 44 46 51 56 56 56 58 58 52 49 50 51
97 92 87 77 51 34 35 33 29 30 34 38 37 39 40 41 45 46 44 43 45 46 50 55 60 60 62 67 64 61 55 54 54
100 97 98 79 71 83 58 40 37 35 36 37 39 39 40 42 43 47 49 49 48 50 52 60 65 66 65 72 73 71 67 63 58
100 100 95 74 80 92 84 45 42 40 38 38 39 40 42 44 44 49 53 56 56 53 55 64 68 65 62 68 76 78 73 75 72
97 100 97 87 84 99 83 54 46 40 40 40 39 39 43 47 47 46 60 61 61 59 61 65 68 64 66 65 64 68 73 82 85
71 99 100 97 79 92 90 69 53 43 42 41 44 45 49 51 49 46 61 70 70 71 74 67 61 64 64 65 65 66 66 77 82
61 61 100 98 100 89 82 81 62 51 43 42 49 52 52 53 55 63 70 73 75 77 74 73 70 74 79 73 75 67 70 75 83
73 78 83 99 78 95 75 68 62 53 43 40 46 47 50 55 57 65 74 77 80 80 81 76 76 82 79 75 59 48 57 68 74
64 83 65 60 54 76 88 75 63 54 48 50 57 53 55 60 67 69 76 81 82 82 82 80 79 82 80 51 42 46 50 59 68
70 55 72 64 60 67 78 81 66 56 57 63 60 58 59 61 71 75 74 82 84 84 85 79 78 78 77 44 40 46 51 60 66
85 70 72 77 68 51 67 58 66 71 71 74 68 63 63 65 69 75 77 81 84 82 81 77 79 79 73 36 39 41 43 52 64
80 72 80 69 74 78 67 49 66 69 77 74 69 70 64 59 66 76 76 80 80 80 77 77 76 79 71 39 36 35 36 37 48
89 87 83 78 77 77 76 71 70 70 75 70 73 78 75 63 63 70 78 82 79 78 76 73 75 76 63 45 41 38 37 36 63
90 93 95 84 72 86 83 72 78 82 73 72 78 74 73 72 72 68 70 80 82 80 83 78 79 77 51 50 46 41 40 39 75
80 97 93 100 86 90 92 89 91 82 78 80 76 83 83 80 73 74 68 70 73 78 84 78 79 71 62 54 47 45 44 42 48

GFSFLT1_850_rhum_102.txt.gz
RH
86 64 65 74 86 86 82 69 39 31 34 38 39 37 34 32 32 31 31 32 32 34 34 34 35 36 36 35 34 33 33 33 32
81 70 64 78 82 88 77 53 33 30 36 40 40 38 36 35 33 33 33 35 36 36 34 37 40 42 40 38 37 37 36 36 36
82 78 70 86 88 84 69 44 35 31 35 38 39 40 40 34 34 35 37 39 39 37 38 41 44 44 43 42 42 42 42 40 39
83 85 74 85 83 78 67 42 35 32 32 38 38 41 43 38 35 37 40 40 40 39 41 44 49 51 47 48 50 50 46 43 42
84 91 83 85 83 74 70 43 37 35 32 36 40 40 40 46 40 38 40 42 42 42 44 48 51 52 53 55 56 52 48 46 47
86 96 83 81 77 72 64 45 37 32 32 42 42 41 42 42 43 40 42 44 45 45 45 49 56 55 58 62 59 53 52 53 56
80 96 87 84 80 57 52 44 34 30 30 35 39 39 40 38 44 45 43 43 45 47 49 54 57 57 59 65 66 65 58 57 56
82 98 91 84 88 72 65 38 32 30 30 32 35 37 37 40 41 44 48 46 46 47 50 55 58 62 58 66 71 71 62 67 64
81 100 96 92 95 71 72 40 35 30 33 34 34 36 39 42 43 42 46 50 51 51 52 56 60 62 54 58 66 66 71 72 75
80 92 99 97 99 70 82 75 51 40 37 38 37 37 38 42 46 46 50 58 61 59 60 61 65 63 57 60 58 61 67 71 79
67 80 86 96 98 77 85 92 76 53 43 41 40 40 40 43 47 49 49 62 68 67 68 71 68 63 62 59 62 58 64 72 84
65 62 74 87 89 94 95 97 94 72 58 46 44 44 44 46 48 51 50 60 71 74 75 78 71 70 75 74 72 76 76 73 78
69 72 65 81 100 98 100 95 83 74 62 52 46 50 55 51 50 52 59 69 74 79 79 78 78 80 81 79 80 64 45 47 74
72 79 79 80 93 100 99 85 91 78 65 57 47 51 54 54 53 53 56 64 73 79 81 83 82 82 84 83 79 50 43 46 52
78 85 86 90 80 82 80 73 78 78 72 69 52 51 62 55 56 57 64 67 72 80 82 84 85 79 77 81 67 42 50 43 47
76 85 86 83 88 73 77 74 73 72 60 74 66 68 68 64 58 60 66 73 73 81 84 83 84 80 77 76 72 36 41 42 38
74 78 83 78 83 77 60 56 60 64 62 73 78 87 70 64 55 57 62 68 73 79 82 84 80 78 74 76 74 42 36 37 36
80 82 81 88 86 85 84 70 65 65 57 54 70 80 75 58 49 49 54 60 69 77 79 80 79 77 75 76 74 46 41 38 38
82 84 84 80 89 85 86 80 72 76 65 62 78 76 69 70 60 58 50 56 67 70 75 78 76 77 75 76 74 49 47 42 42
84 88 97 98 94 92 87 85 82 80 73 60 74 82 83 76 79 69 62 60 60 66 74 73 78 79 82 81 75 55 48 49 45

GFSFLT1_850_rhum_105.txt.gz
RH
79 71 64 85 87 92 78 72 45 28 32 32 34 32 31 30 31 31 31 31 32 33 32 34 36 36 36 35 34 34 34 34 32
80 81 69 77 87 86 85 72 35 28 35 37 37 36 33 33 32 32 33 35 36 34 36 40 41 41 39 39 39 39 38 36 36
79 81 69 72 84 89 84 67 35 29 35 38 37 36 34 33 33 34 36 38 38 38 41 44 47 46 44 43 43 44 42 40 39
76 83 79 78 87 84 80 49 37 31 36 36 36 39 36 33 34 35 38 39 39 39 42 47 50 49 47 48 49 47 44 42 43
76 85 84 83 87 84 79 45 39 33 35 38 37 37 39 38 35 37 39 40 38 39 42 48 52 52 51 54 54 47 46 47 48
76 76 88 85 88 82 77 63 42 36 38 40 39 36 37 42 41 38 38 40 40 41 43 48 53 55 55 58 56 52 49 52 52
75 72 88 84 88 85 76 70 48 42 38 40 43 38 35 36 41 43 40 41 42 43 45 50 56 57 59 61 64 63 56 57 55
71 77 93 94 91 87 74 69 50 42 34 37 42 42 38 36 36 42 46 46 46 47 50 53 60 62 58 62 68 70 62 67 66
71 74 88 95 89 85 82 62 46 38 33 35 43 44 42 40 41 40 42 47 50 49 51 55 62 65 61 60 64 64 70 70 76
76 78 80 96 95 92 93 80 45 37 34 33 38 40 42 43 43 45 44 48 52 57 54 56 62 67 63 60 61 63 60 67 74
67 75 82 88 96 99 99 85 61 48 37 34 39 40 41 44 45 49 49 48 57 62 62 60 65 70 66 65 66 66 62 73 75
65 63 63 68 92 99 100 89 80 90 57 46 45 42 42 43 45 50 53 53 52 68 70 69 73 68 66 71 74 68 77 79 73
67 68 68 68 71 91 99 95 97 100 81 63 54 47 47 46 47 52 54 56 52 64 73 74 76 73 75 76 77 76 67 50 47
73 74 73 73 78 83 96 92 95 99 86 86 74 56 52 53 60 58 56 57 59 69 73 78 80 77 76 75 74 71 47 38 44
75 72 73 82 86 91 89 93 96 100 86 79 82 72 60 52 57 56 56 56 59 59 72 80 81 84 82 79 77 74 50 34 38
72 71 76 80 88 91 89 83 82 85 83 78 70 68 63 52 52 60 54 54 57 64 70 81 84 84 86 79 76 76 67 35 35
73 76 84 87 87 91 92 86 80 96 86 84 71 86 57 49 55 60 56 55 57 61 72 75 83 84 83 80 76 75 74 42 35
84 84 86 84 80 85 81 83 79 78 77 76 86 74 74 71 58 46 47 46 50 52 63 73 80 82 82 78 77 75 75 50 38
80 88 94 94 89 93 92 88 85 89 88 73 73 75 79 70 62 54 44 39 39 40 51 69 73 75 77 78 76 76 76 60 44
82 84 79 86 91 89 89 94 94 90 95 96 90 69 72 78 78 70 60 55 49 45 55 61 73 69 69 76 74 80 79 64 49

GFSFLT1_850_rhum_108.txt.gz
RH
72 64 54 71 91 91 78 72 53 26 28 28 29 29 29 30 36 35 30 70 31 32 33 35 36 35 34 34 34 34 33 32 32
76 84 67 86 90 93 83 78 53 30 32 32 33 31 30 32 32 42 36 37 34 33 36 39 40 39 38 38 37 37 37 34 34
80 85 75 78 84 92 87 78 45 31 38 38 38 35 32 32 34 37 63 36 36 37 40 43 44 43 42 42 43 44 40 36 37
77 78 79 74 77 89 86 72 49 32 40 43 41 38 35 36 35 37 64 39 37 40 44 46 48 47 46 49 49 46 42 42 42
77 76 80 80 80 86 85 76 46 33 40 42 43 46 39 53 33 33 54 40 39 40 43 47 50 50 50 54 52 47 47 48 50
86 80 83 85 86 91 88 79 47 38 37 42 45 44 60 72 54 57 33 35 38 42 44 49 53 53 54 58 56 54 51 54 53
95 94 83 90 87 92 89 79 70 45 41 41 46 44 78 79 72 65 38 38 38 41 44 49 54 56 57 62 64 65 59 58 57
94 95 82 88 94 93 93 85 80 53 80 77 66 63 83 78 61 51 46 44 44 44 45 48 54 57 58 57 66 70 68 68 67
98 98 91 85 92 95 96 99 94 87 66 72 67 76 66 75 72 58 42 48 49 47 48 51 56 61 63 54 60 69 68 72 74
92 79 84 86 87 93 97 99 100 89 54 42 61 72 67 72 72 66 44 43 49 53 54 53 58 64 66 60 58 60 59 63 66
74 77 79 81 86 91 92 93 94 90 67 63 48 52 49 53 67 58 62 49 46 53 60 67 72 68 67 62 62 63 63 59 72
68 66 72 67 68 83 91 94 98 99 87 68 66 64 61 49 48 47 48 57 54 51 60 65 67 68 70 70 63 71 64 74 85
75 74 66 67 81 74 88 96 97 99 89 86 72 49 64 50 68 65 48 49 59 57 53 66 71 74 74 67 72 76 75 74 52
82 82 77 94 88 80 81 84 89 94 89 94 76 78 67 56 67 68 65 54 52 56 58 59 71 77 77 73 73 73 71 68 45
86 80 80 80 74 76 84 89 87 92 86 92 96 78 65 86 77 68 68 73 68 54 59 64 71 75 78 77 76 76 76 74 46
72 85 77 67 75 90 88 96 100 94 91 100 98 90 69 65 85 67 56 55 62 75 58 59 62 76 78 81 83 78 77 75 59
72 73 71 73 81 99 94 97 98 98 96 95 98 94 84 71 59 63 56 46 41 48 59 57 59 69 81 80 82 81 76 75 72
76 73 79 75 88 82 93 94 97 100 98 94 98 98 89 72 64 54 49 45 40 37 51 54 49 59 69 78 79 80 79 78 75
85 86 87 84 92 93 90 90 89 90 92 97 87 92 78 73 69 62 67 45 50 50 50 49 50 49 66 72 74 76 77 79 78
83 82 85 93 92 86 91 91 89 93 90 95 90 74 76 74 80 86 77 61 55 56 51 51 50 57 58 60 69 63 63 66 75

GFSFLT1_850_rhum_111.txt.gz
RH
65 68 44 35 78 84 71 78 48 25 29 31 35 34 31 31 75 78 53 79 30 31 32 36 36 35 34 33 33 33 33 33 32
74 77 58 58 83 90 80 76 52 26 29 30 30 30 31 62 73 75 73 37 33 32 36 38 39 38 37 37 37 38 37 35 35
78 80 81 72 88 90 92 81 59 29 31 32 34 33 33 54 76 80 87 36 33 34 38 41 43 41 40 42 44 43 39 37 39
77 81 84 81 77 83 92 85 66 34 33 36 37 35 35 65 73 79 90 37 34 34 37 42 46 45 45 47 49 44 43 43 43
76 77 81 82 77 80 92 89 68 42 35 39 37 37 38 40 73 73 81 48 37 35 37 40 45 48 48 52 52 47 47 50 51
75 72 73 77 79 82 89 92 84 51 37 44 40 40 40 61 72 75 63 44 40 40 41 44 48 49 50 55 55 53 50 52 53
81 86 83 75 80 86 93 97 88 64 43 42 42 40 51 76 72 74 57 38 39 41 46 48 52 55 55 57 61 64 56 57 56
88 88 92 83 86 88 94 99 93 81 68 81 48 42 56 76 76 76 59 41 40 39 43 48 53 57 59 59 64 68 69 65 65
88 91 86 85 82 87 91 93 95 96 76 74 74 76 80 79 74 74 62 47 46 45 42 42 48 56 62 62 57 64 69 69 68
96 92 91 92 85 85 89 92 92 98 91 83 75 70 70 72 71 73 68 49 44 49 51 54 47 48 55 60 56 55 57 59 66
86 87 91 83 84 83 97 94 94 95 93 85 81 69 68 70 67 68 70 58 46 45 50 56 79 68 58 58 60 55 55 60 56
81 75 83 88 87 91 96 100 99 94 97 87 71 62 64 66 67 67 69 70 56 48 46 51 60 63 73 73 79 66 59 69 71
81 90 92 86 87 84 80 86 93 92 96 96 82 59 62 61 58 60 64 66 64 56 48 45 49 65 65 67 70 64 66 68 77
72 83 89 93 92 91 92 86 86 92 88 89 95 87 59 50 49 47 63 65 60 65 62 49 49 50 66 71 71 63 75 79 71
68 72 71 91 91 93 87 87 83 90 100 96 92 91 96 84 69 68 63 64 68 66 54 58 48 51 58 68 73 69 65 72 69
66 60 54 56 74 71 79 96 99 96 99 97 99 96 93 100 82 53 69 66 63 68 73 56 47 49 51 59 71 72 72 73 69
62 60 55 52 86 71 75 90 99 99 94 100 98 100 94 95 85 76 70 67 65 59 62 53 43 39 44 46 54 67 71 74 75
83 78 74 81 87 94 86 79 93 98 98 94 100 93 87 78 75 73 71 68 64 66 51 46 43 37 42 44 50 64 70 75 81
94 93 93 92 90 92 96 94 90 96 97 100 99 89 83 82 73 69 72 70 66 57 51 51 46 39 42 42 46 52 62 75 76
99 100 97 94 89 98 96 93 93 90 90 90 92 94 93 89 92 88 78 74 69 68 68 64 46 40 50 44 47 49 61 67 72

GFSFLT1_850_rhum_114.txt.gz
RH
72 63 58 33 53 78 79 82 57 24 26 31 34 36 36 50 77 74 76 52 30 29 30 34 35 34 33 33 33 34 34 31 30
77 70 67 42 41 82 83 72 58 24 28 31 32 30 30 53 63 72 60 58 32 30 33 36 37 37 37 37 38 39 37 34 33
79 79 80 65 65 88 92 80 74 35 27 30 31 31 30 43 69 80 63 63 35 33 36 38 40 40 39 42 44 42 38 37 37
72 76 82 85 78 87 88 93 86 54 29 31 35 35 34 46 65 63 58 52 37 36 38 42 44 43 43 46 48 43 42 42 42
61 68 72 77 80 79 82 91 91 69 33 33 38 38 37 44 70 69 72 60 37 34 36 42 47 47 48 51 52 48 47 49 50
56 56 60 65 70 77 79 89 96 84 48 34 41 40 40 42 64 58 66 62 41 34 33 36 43 47 50 53 55 53 51 53 53
57 83 84 79 69 74 82 88 96 91 69 37 40 39 42 49 74 69 73 66 42 37 36 36 38 43 48 51 55 60 58 56 56
76 84 85 89 82 75 84 93 98 94 82 52 37 38 42 60 79 76 74 63 43 40 39 40 43 45 46 50 50 56 62 60 62
87 83 82 79 80 77 79 89 91 90 84 68 53 49 43 59 79 76 74 68 51 42 41 43 45 48 52 55 53 48 55 60 64
86 88 88 92 88 81 77 86 88 90 89 81 70 77 71 72 80 77 75 70 55 46 45 45 45 46 49 55 58 53 50 52 58
81 82 85 88 92 84 74 78 87 90 94 98 77 77 72 71 70 72 72 68 59 47 40 42 47 50 52 53 56 58 49 52 58
83 77 79 88 85 78 77 85 89 95 96 94 88 81 76 69 70 70 68 68 59 50 46 42 42 49 63 75 74 74 68 56 62
69 70 69 77 84 84 84 93 98 97 97 98 93 92 71 66 65 60 64 66 58 43 40 43 43 45 50 56 59 72 75 69 70
80 74 73 73 84 87 82 88 83 80 84 86 84 87 90 72 59 59 60 61 63 62 60 50 42 44 45 51 60 63 62 55 64
79 82 77 79 75 82 80 82 83 82 82 88 88 92 100 99 75 58 52 53 62 65 63 61 46 44 44 46 48 60 63 60 63
77 70 71 74 73 64 68 56 80 85 89 94 95 91 96 100 98 88 80 66 60 61 63 60 60 47 46 42 43 45 54 60 58
68 60 60 61 60 56 57 58 67 75 93 99 100 100 92 86 91 87 87 90 80 66 66 66 65 49 45 41 40 42 45 47 60
62 65 58 60 65 68 60 68 81 78 80 93 98 99 93 82 78 75 72 72 73 74 70 64 70 64 56 43 42 45 45 44 56
90 93 78 81 81 78 79 77 84 82 93 92 97 97 91 92 81 74 74 73 72 67 66 70 69 62 59 49 41 46 48 48 46
99 99 99 100 100 99 90 95 99 100 96 93 85 93 94 96 96 99 81 76 73 73 73 71 67 62 55 49 44 44 45 44 46

GFSFLT1_850_rhum_117.txt.gz
RH
79 68 64 40 53 76 76 77 60 25 26 33 35 36 44 52 70 80 73 52 33 31 32 34 34 33 32 32 32 33 33 31 30
76 74 66 54 37 61 85 76 69 30 26 29 35 37 38 47 51 50 41 44 36 32 36 39 39 37 37 37 38 38 34 31 32
68 74 71 69 48 57 91 83 76 53 27 28 31 32 33 50 59 64 45 41 35 32 34 37 40 40 40 42 44 40 37 35 35
66 69 73 74 72 71 88 93 84 80 34 28 30 31 32 43 55 57 60 58 43 33 34 36 40 41 41 45 48 43 41 40 40
60 62 65 68 76 78 75 82 93 88 65 30 32 35 35 38 54 58 66 66 63 38 35 35 38 41 43 45 49 46 44 47 48
58 57 56 63 65 72 76 78 82 92 77 45 32 37 37 38 51 57 62 59 59 44 36 37 40 42 44 46 50 51 48 50 50
59 58 62 80 75 69 72 77 81 94 85 67 35 35 38 40 45 57 56 56 57 40 36 36 38 42 48 50 50 54 57 52 54
69 57 69 85 85 85 78 79 82 86 89 81 54 35 41 42 47 60 74 62 59 47 39 38 39 41 44 48 50 50 58 58 59
86 81 80 83 76 80 79 80 77 81 87 89 79 48 39 44 55 67 78 70 68 58 38 38 38 40 42 46 51 50 50 56 60
88 85 85 85 83 84 80 80 78 81 85 92 89 71 55 62 52 74 79 76 69 63 46 39 40 40 41 42 46 52 49 50 52
84 88 86 82 83 83 88 82 79 79 85 90 92 84 67 76 71 68 78 78 75 64 54 44 39 39 44 44 44 48 53 48 48
89 86 84 75 82 87 87 87 80 84 92 94 91 85 78 80 74 76 71 70 69 65 57 48 43 40 39 44 55 58 55 60 53
86 83 83 78 84 88 94 82 84 87 90 94 95 88 85 78 75 70 71 71 69 64 66 56 50 47 46 45 51 74 72 74 74
74 83 80 78 75 72 77 82 87 94 96 97 100 100 98 91 92 77 68 69 69 66 61 55 54 51 48 48 48 50 63 57 63
80 76 82 79 76 74 77 83 82 81 80 87 88 88 86 92 90 86 68 65 62 61 59 60 57 55 51 47 49 45 48 56 55
85 78 78 80 80 79 86 78 72 64 71 82 80 86 84 86 86 91 92 79 61 59 58 58 60 60 54 56 47 47 44 49 55
84 80 78 79 86 84 79 68 64 62 60 66 72 77 90 90 84 82 80 78 78 76 79 68 63 64 65 60 54 49 46 48 55
82 83 88 84 85 90 82 65 58 57 65 78 77 96 94 81 80 74 75 73 71 68 73 88 81 70 66 67 61 52 46 47 52
78 95 94 86 81 75 68 72 78 83 79 87 86 84 88 83 85 83 78 73 74 71 70 68 70 78 75 68 72 64 50 47 49
98 96 90 99 89 91 90 81 88 95 94 91 97 92 93 95 98 99 96 86 83 78 75 73 71 70 66 68 73 72 68 55 52

GFSFLT1_850_rhum_120.txt.gz
RH
75 69 61 54 40 76 79 77 68 37 25 36 35 54 64 70 59 46 44 42 30 28 28 32 33 34 33 33 32 33 33 29 29
66 76 67 64 43 49 77 80 80 53 25 31 36 37 46 54 48 53 52 46 37 30 29 32 34 34 34 35 37 38 33 30 30
70 68 75 71 60 40 62 81 74 72 31 28 35 36 38 41 45 40 42 46 44 34 32 34 36 37 36 38 40 39 35 33 33
69 69 69 73 75 57 58 83 82 76 61 28 31 34 34 38 46 46 44 46 46 38 35 36 38 38 38 40 44 41 39 37 37
61 62 65 70 72 79 76 82 89 87 82 49 30 32 33 34 45 46 47 50 45 37 36 34 35 40 41 41 44 44 40 44 46
62 60 59 60 65 72 80 80 81 84 90 75 40 33 36 36 42 45 54 58 56 48 36 34 34 35 38 42 45 48 46 46 49
60 62 60 59 59 62 67 77 78 80 86 89 68 36 37 41 39 44 54 51 56 53 41 35 34 35 37 40 43 47 52 49 51
72 71 69 60 61 71 80 75 79 78 77 89 84 60 36 41 41 44 47 52 57 52 46 37 35 34 34 36 41 44 49 55 52
90 86 82 70 67 77 81 81 77 78 78 85 89 82 54 39 44 44 51 59 69 62 54 42 38 38 37 39 40 43 44 48 56
96 89 82 82 81 80 80 79 76 76 79 84 89 90 81 52 41 46 59 62 70 75 66 54 41 39 40 40 40 42 45 44 46
91 93 97 82 85 84 81 83 88 79 78 79 87 88 87 82 52 52 60 66 69 79 72 63 49 41 40 43 43 43 46 48 44
88 89 84 92 97 92 88 84 82 87 86 86 86 92 94 92 72 68 65 74 76 79 76 69 58 51 42 41 44 47 47 49 53
59 90 88 87 92 91 88 83 80 82 86 78 78 87 93 99 84 81 78 80 79 74 72 69 66 56 52 49 61 64 62 66 64
57 62 82 88 88 88 89 86 86 84 83 80 84 91 99 100 100 90 81 77 78 77 71 70 68 66 58 53 50 65 68 72 70
68 81 71 85 88 87 86 86 84 82 79 85 97 94 90 87 93 99 96 91 76 74 73 70 67 63 59 57 53 50 50 54 65
50 69 76 74 91 87 84 83 83 84 84 90 81 75 76 85 81 80 85 89 90 83 68 65 63 62 62 64 56 57 55 52 51
32 32 49 72 89 87 83 84 87 85 83 71 67 79 76 74 74 83 86 85 82 89 85 70 63 61 61 61 59 58 62 59 54
49 35 35 55 90 96 96 92 86 87 77 71 69 88 81 75 73 69 65 69 71 79 85 83 82 82 83 81 66 64 63 60 60
94 81 56 66 80 97 97 99 99 88 78 83 79 88 95 91 84 76 72 70 70 73 75 80 76 74 78 80 84 84 74 67 64
100 99 80 81 78 84 97 99 99 91 80 81 85 93 99 98 99 99 90 91 84 80 80 81 79 77 73 71 71 70 70 76 74

GFSFLT1_850_rhum_123.txt.gz
RH
69 73 69 62 47 65 78 72 76 55 31 38 42 55 47 45 48 50 61 48 33 28 27 29 31 31 31 31 30 32 32 29 29
66 67 75 65 61 46 78 79 75 64 31 30 41 49 49 45 45 44 42 43 44 33 30 31 32 34 34 34 36 37 33 30 29
65 69 65 75 71 60 42 72 81 77 59 29 40 39 44 40 38 41 44 40 43 34 31 32 34 35 35 35 38 39 35 32 32
64 66 65 64 72 76 57 46 77 80 74 46 30 40 40 37 36 41 45 48 47 40 33 33 33 34 35 37 40 41 37 35 35
72 66 63 61 67 72 78 67 68 87 87 80 39 32 39 36 36 40 43 47 47 49 37 35 33 34 35 36 39 42 39 40 42
71 71 70 66 62 63 70 76 78 81 90 91 82 39 34 34 34 36 45 49 48 48 47 37 34 34 36 37 39 42 43 42 46
87 69 68 69 68 65 61 67 74 81 82 82 90 79 37 35 37 36 42 48 52 50 45 43 35 33 34 36 37 39 43 46 47
86 90 83 74 72 70 65 68 65 70 77 77 80 84 73 39 38 41 39 47 50 49 51 49 38 35 34 36 40 43 43 48 49
81 83 89 91 86 81 69 77 81 75 73 76 79 86 88 72 40 42 42 44 50 53 56 55 52 39 38 37 38 41 45 45 49
84 89 82 84 87 86 82 79 79 84 81 75 75 80 88 86 77 42 45 45 49 61 74 68 59 49 40 40 40 40 43 48 45
43 76 97 89 83 85 83 86 85 83 85 86 78 79 84 88 85 73 48 50 52 64 69 70 73 62 46 41 41 42 42 44 48
28 29 46 75 92 92 91 90 92 89 90 89 85 83 85 89 92 91 75 57 57 67 74 72 74 72 62 49 40 41 45 45 46
35 34 30 41 71 95 91 92 99 98 94 88 84 84 81 87 91 88 96 74 76 68 79 80 76 73 69 64 59 77 66 53 51
41 37 38 49 65 72 96 93 99 96 92 89 87 87 82 78 83 86 92 91 88 83 86 86 82 78 72 72 69 65 64 75 69
39 37 47 53 78 76 72 94 91 89 91 91 90 89 86 85 86 90 94 77 89 93 90 92 92 87 86 78 72 65 64 59 53
42 37 34 35 40 60 69 79 92 97 93 93 94 88 88 93 90 85 80 68 88 88 98 96 91 85 84 86 78 66 62 62 62
52 57 59 51 46 29 43 81 95 87 94 94 98 99 95 87 77 76 75 75 90 88 88 99 97 96 86 84 77 73 67 62 63
69 70 90 87 76 61 32 65 96 99 95 91 97 95 83 70 66 67 70 80 88 90 72 75 90 93 99 96 88 75 69 75 68
74 83 90 99 100 94 83 63 83 93 98 98 93 97 89 86 88 82 79 78 76 72 73 79 92 96 93 93 93 90 89 88 75
98 97 91 98 100 100 100 96 82 67 97 94 100 94 86 98 95 95 87 86 82 81 82 85 89 89 94 95 89 86 84 82 76